Sigfox identifier Datetime Temperature Humidity SNR
003C5BC3 2019-03-23 08:12:35 20.5 20 20.5
003C5BC3 2019-03-23 07:40:06 20.5 20 20.6
003C5BC3 2019-03-23 07:07:38 20.6 20 20.7
003C5BC3 2019-03-23 06:35:09 20.5 20 20.7
003C5BC3 2019-03-23 06:02:41 20.6 20 20.7
003C5BC3 2019-03-23 05:30:12 20.6 20 20.8
003C5BC3 2019-03-23 04:57:42 20.6 19 20.9
003C5BC3 2019-03-23 04:25:14 20.6 19 20.9
003C5BC3 2019-03-23 03:52:44 20.7 19 20.9
003C5BC3 2019-03-23 03:20:15 20.7 19 20.8
003C5BC3 2019-03-23 02:47:46 20.8 19 20.6
003C5BC3 2019-03-23 02:15:16 20.8 19 20.8
003C5BC3 2019-03-23 01:42:46 20.9 19 20.7
003C5BC3 2019-03-23 01:10:16 20.9 19 20.7
003C5BC3 2019-03-23 00:37:47 21 18 20.6
003C5BC3 2019-03-23 00:05:18 21.1 18 20.3
003C5BC3 2019-03-22 23:32:49 21.4 18 20.2
003C5BC3 2019-03-22 23:31:32 21.1 18 20.1
003C5BC3 2019-03-22 22:59:04 21.2 18 20
003C5BC3 2019-03-22 22:26:35 21.3 18 19.9
003C5BC3 2019-03-22 21:54:06 21.3 18 19.8
003C5BC3 2019-03-22 21:21:37 21.4 18 19.8
003C5BC3 2019-03-22 20:49:08 21.4 17 19.8
003C5BC3 2019-03-22 20:16:43 21.4 17 19.8
003C5BC3 2019-03-22 19:44:10 21.4 17 19.8
003C5BC3 2019-03-22 19:11:42 21.4 17 19.6
003C5BC3 2019-03-22 18:39:12 21.4 17 19.5
003C5BC3 2019-03-22 18:06:42 21.4 16 19.5
003C5BC3 2019-03-22 17:34:12 21.4 16 19.7
003C5BC3 2019-03-22 17:01:44 21.4 16 19.6
003C5BC3 2019-03-22 16:29:11 21.3 16 19.6
003C5BC3 2019-03-22 15:56:41 21.2 16 19.8
003C5BC3 2019-03-22 15:24:11 21.1 17 19.8
003C5BC3 2019-03-22 14:51:41 20.9 17 20
003C5BC3 2019-03-22 14:19:12 20.8 18 20.2
003C5BC3 2019-03-22 13:46:44 20.8 19 20.4
003C5BC3 2019-03-22 13:14:14 20.8 19 20.4
003C5BC3 2019-03-22 12:41:44 20.8 20 20.5
003C5BC3 2019-03-22 12:09:15 20.8 20 20.5
003C5BC3 2019-03-22 11:36:47 20.8 20 20.6
003C5BC3 2019-03-22 11:04:19 20.7 21 20.7
003C5BC3 2019-03-22 10:31:51 20.7 21 20.9
003C5BC3 2019-03-22 09:59:22 20.7 22 20.9
003C5BC3 2019-03-22 09:26:54 20.7 22 22.1
003C5BC3 2019-03-22 08:54:25 20.7 23 22.2
003C5BC3 2019-03-22 08:21:56 20.7 23 22.4
003C5BC3 2019-03-22 07:49:28 20.7 24 22.4
003C5BC3 2019-03-22 07:16:59 20.7 24 22.3
003C5BC3 2019-03-22 06:44:31 20.7 24 22.4
003C5BC3 2019-03-22 06:12:02 20.7 25 22.4
003C5BC3 2019-03-22 05:39:34 20.7 25 22.4
003C5BC3 2019-03-22 05:07:06 20.7 25 22.4
003C5BC3 2019-03-22 04:34:38 20.7 26 22.4
003C5BC3 2019-03-22 04:02:10 20.7 26 22.2
003C5BC3 2019-03-22 03:29:41 20.8 26 22.3
003C5BC3 2019-03-22 02:57:13 20.8 27 22.3
003C5BC3 2019-03-22 02:24:45 20.8 27 22.2
003C5BC3 2019-03-22 01:52:16 20.8 27 22.2
003C5BC3 2019-03-22 01:19:48 20.8 28 22.2
003C5BC3 2019-03-22 00:47:19 20.9 28 22.2
003C5BC3 2019-03-22 00:14:49 20.8 28 23
003C5BC3 2019-03-21 23:42:20 20.9 28 23
003C5BC3 2019-03-21 23:09:51 20.9 28 23
003C5BC3 2019-03-21 22:37:22 20.9 28 23
003C5BC3 2019-03-21 22:04:54 21 28 23
003C5BC3 2019-03-21 21:32:25 21 28 22.9
003C5BC3 2019-03-21 20:59:57 21 28 22.9
003C5BC3 2019-03-21 20:26:55 21 28 22.9
003C5BC3 2019-03-21 19:54:27 21 28 22.8
003C5BC3 2019-03-21 19:21:59 21.1 28 22.6
003C5BC3 2019-03-21 18:49:31 21.2 28 22.7
003C5BC3 2019-03-21 18:17:03 21.2 28 22.8
003C5BC3 2019-03-21 17:44:34 21.3 28 22.8
003C5BC3 2019-03-21 17:12:04 21.3 27 22.9
003C5BC3 2019-03-21 16:39:35 21.4 27 23
003C5BC3 2019-03-21 16:07:06 21.4 28 23
003C5BC3 2019-03-21 15:34:37 21.5 28 23.1
003C5BC3 2019-03-21 15:02:09 21.4 28 23.2
003C5BC3 2019-03-21 14:29:39 21.3 27 23.1
003C5BC3 2019-03-21 13:57:10 21.2 27 23.1
003C5BC3 2019-03-21 13:24:42 21.1 26 23.1
003C5BC3 2019-03-21 12:52:14 21 26 23.1
003C5BC3 2019-03-21 12:19:44 20.9 26 23
003C5BC3 2019-03-21 11:47:15 20.9 25 23
003C5BC3 2019-03-21 11:14:46 20.9 25 22.2
003C5BC3 2019-03-21 10:42:17 20.8 25 22.2
003C5BC3 2019-03-21 10:09:48 20.7 25 22.2
003C5BC3 2019-03-21 09:37:20 20.7 25 22.4
003C5BC3 2019-03-21 09:04:52 20.6 25 22.4
003C5BC3 2019-03-21 08:32:25 20.6 25 22.4
003C5BC3 2019-03-21 07:59:55 20.6 25 22.3
003C5BC3 2019-03-21 07:27:27 20.6 25 22.4
003C5BC3 2019-03-21 06:54:57 20.7 25 21.4
003C5BC3 2019-03-21 06:22:28 20.7 25 22.4
003C5BC3 2019-03-21 05:49:59 20.7 25 22.5
003C5BC3 2019-03-21 05:17:32 20.6 25 22.4
003C5BC3 2019-03-21 04:45:02 20.7 25 22.4
003C5BC3 2019-03-21 04:12:32 20.6 26 22.2
003C5BC3 2019-03-21 03:40:03 20.7 26 22.1
003C5BC3 2019-03-21 03:07:34 20.7 26 22
003C5BC3 2019-03-21 02:35:05 20.7 26 22
003C5BC3 2019-03-21 02:02:37 20.7 26 21.9
003C5BC3 2019-03-21 01:30:08 20.7 26 21.8
003C5BC3 2019-03-21 00:57:39 20.7 26 21.8
003C5BC3 2019-03-21 00:25:10 20.7 26 21.9
003C5BC3 2019-03-20 23:52:41 20.7 26 21.9
003C5BC3 2019-03-20 23:20:12 20.7 26 22
003C5BC3 2019-03-20 22:47:42 20.7 26 21.9
003C5BC3 2019-03-20 22:15:13 20.8 26 21.9
003C5BC3 2019-03-20 21:42:44 20.8 26 21.8
003C5BC3 2019-03-20 21:10:15 20.8 26 21.8
003C5BC3 2019-03-20 20:37:45 20.8 26 21.7
003C5BC3 2019-03-20 20:05:15 20.8 26 21.5
003C5BC3 2019-03-20 19:32:46 20.9 26 21.4
003C5BC3 2019-03-20 19:00:15 20.9 26 21.4
003C5BC3 2019-03-20 18:27:46 21 26 21.3
003C5BC3 2019-03-20 17:55:17 21 26 21.3
003C5BC3 2019-03-20 17:22:15 21.1 26 20.1
003C5BC3 2019-03-20 16:49:45 21.1 26 20
003C5BC3 2019-03-20 16:17:16 21.2 26 20
003C5BC3 2019-03-20 15:44:48 21.2 26 20.1
003C5BC3 2019-03-20 15:12:18 21.2 26 20.3
003C5BC3 2019-03-20 14:39:47 21.1 25 20.2
003C5BC3 2019-03-20 14:07:18 21.1 25 20.2
003C5BC3 2019-03-20 13:34:47 21.1 25 20.3
003C5BC3 2019-03-20 13:02:18 21 25 20.8
003C5BC3 2019-03-20 12:29:48 21 25 20.7
003C5BC3 2019-03-20 11:57:19 21 25 20.6
003C5BC3 2019-03-20 11:24:49 20.9 25 20.7
003C5BC3 2019-03-20 10:52:20 20.8 25 20.8
003C5BC3 2019-03-20 10:19:51 20.7 25 20.8
003C5BC3 2019-03-20 09:47:21 20.6 25 20.8
003C5BC3 2019-03-20 09:14:51 20.6 25 20.7
003C5BC3 2019-03-20 08:42:22 20.6 25 21.9
003C5BC3 2019-03-20 08:09:53 20.5 26 21.9
003C5BC3 2019-03-20 07:37:23 20.6 26 21.9
003C5BC3 2019-03-20 07:04:53 20.6 26 21.9
003C5BC3 2019-03-20 06:32:24 20.6 27 21.8
003C5BC3 2019-03-20 05:59:55 20.6 27 22
003C5BC3 2019-03-20 05:27:25 20.6 27 22
003C5BC3 2019-03-20 04:54:55 20.6 27 21.9
003C5BC3 2019-03-20 04:22:25 20.6 27 21.8
003C5BC3 2019-03-20 03:49:57 20.6 27 21.8
003C5BC3 2019-03-20 03:17:28 20.6 27 21.7
003C5BC3 2019-03-20 02:44:59 20.6 28 21.6
003C5BC3 2019-03-20 02:12:29 20.7 28 21.5
003C5BC3 2019-03-20 01:40:00 20.7 28 21.5
003C5BC3 2019-03-20 01:07:31 20.7 28 21.5
003C5BC3 2019-03-20 00:34:59 20.7 28 21.4
003C5BC3 2019-03-20 00:02:30 20.7 28 21.2
003C5BC3 2019-03-19 23:30:01 20.8 28 21.1
003C5BC3 2019-03-19 22:57:31 20.8 28 21.1
003C5BC3 2019-03-19 22:25:01 20.8 29 21
003C5BC3 2019-03-19 21:52:32 20.8 29 21
003C5BC3 2019-03-19 21:20:02 20.9 29 21
003C5BC3 2019-03-19 20:47:33 20.9 29 20.9
003C5BC3 2019-03-19 20:15:05 20.9 29 20.9
003C5BC3 2019-03-19 19:42:35 21 29 20.9
003C5BC3 2019-03-19 19:10:09 21.1 29 19.4
003C5BC3 2019-03-19 18:37:37 21.1 29 19.4
003C5BC3 2019-03-19 18:05:07 21.3 29 19.7
003C5BC3 2019-03-19 17:32:38 21.3 30 19.7
003C5BC3 2019-03-19 17:00:08 21.3 30 19.9
003C5BC3 2019-03-19 16:27:39 21.3 30 19.7
003C5BC3 2019-03-19 15:55:09 21.2 30 19.7
003C5BC3 2019-03-19 15:22:42 21.2 29 20
003C5BC3 2019-03-19 14:50:13 21.3 29 20.1
003C5BC3 2019-03-19 14:17:11 21.3 30 20.5
003C5BC3 2019-03-19 13:44:41 21.2 29 20.6
003C5BC3 2019-03-19 13:12:11 21.2 29 20.7
003C5BC3 2019-03-19 12:39:42 21.1 30 20.9
003C5BC3 2019-03-19 12:07:12 21.1 30 20.8
003C5BC3 2019-03-19 11:34:43 21 29 20.9
003C5BC3 2019-03-19 11:02:13 20.9 29 20.9
003C5BC3 2019-03-19 10:29:43 20.8 29 20.8
003C5BC3 2019-03-19 09:57:14 20.7 28 21.1
003C5BC3 2019-03-19 09:24:44 20.7 28 21.2
003C5BC3 2019-03-19 08:52:15 20.6 27 21.1
003C5BC3 2019-03-19 08:19:46 20.6 27 21.1
003C5BC3 2019-03-19 07:47:16 20.6 27 21.2
003C5BC3 2019-03-19 07:14:48 20.6 27 21.2
003C5BC3 2019-03-19 06:42:19 20.6 27 21.1
003C5BC3 2019-03-19 06:09:50 20.6 27 21
003C5BC3 2019-03-19 05:37:21 20.6 27 20.9
003C5BC3 2019-03-19 05:04:53 20.6 27 20.7
003C5BC3 2019-03-19 04:32:23 20.6 27 20.7
003C5BC3 2019-03-19 03:59:52 20.6 27 20.4
003C5BC3 2019-03-19 03:27:22 20.6 27 20.4
003C5BC3 2019-03-19 02:54:53 20.6 27 20.2
003C5BC3 2019-03-19 02:22:24 20.6 27 20.1
003C5BC3 2019-03-19 01:49:57 20.7 27 19.9
003C5BC3 2019-03-19 01:17:26 20.6 27 19.7
003C5BC3 2019-03-19 00:44:58 20.6 27 19.6
003C5BC3 2019-03-19 00:12:30 20.7 27 19.4
003C5BC3 2019-03-18 23:40:01 20.7 27 19.5
003C5BC3 2019-03-18 23:07:33 20.7 27 19.5
003C5BC3 2019-03-18 22:35:04 20.7 27 19.5
003C5BC3 2019-03-18 22:02:35 20.7 27 19.3
003C5BC3 2019-03-18 21:30:05 20.7 27 19.3
003C5BC3 2019-03-18 20:57:36 20.8 27 19.4
003C5BC3 2019-03-18 20:25:07 20.8 27 19.2
003C5BC3 2019-03-18 19:52:36 20.8 27 19.4
003C5BC3 2019-03-18 19:20:08 20.8 27 19.4
003C5BC3 2019-03-18 18:47:38 20.8 27 19.5
003C5BC3 2019-03-18 18:15:09 20.9 27 19.3
003C5BC3 2019-03-18 17:42:41 21 27 19.5
003C5BC3 2019-03-18 17:10:11 21 27 19.7
003C5BC3 2019-03-18 16:37:44 21 27 19.7
003C5BC3 2019-03-18 16:05:13 21 28 19.7
003C5BC3 2019-03-18 15:32:45 20.9 27 20
003C5BC3 2019-03-18 15:00:16 20.9 27 20.2
003C5BC3 2019-03-18 14:27:47 20.9 27 20.4
003C5BC3 2019-03-18 13:55:18 20.8 27 20.5
003C5BC3 2019-03-18 13:22:50 20.8 27 20.5
003C5BC3 2019-03-18 12:50:21 20.8 27 20.5
003C5BC3 2019-03-18 12:17:52 20.8 27 20.5
003C5BC3 2019-03-18 11:45:23 20.8 27 20.5
003C5BC3 2019-03-18 11:12:19 20.7 27 20.7
003C5BC3 2019-03-18 10:39:50 20.7 27 20.5
003C5BC3 2019-03-18 10:07:22 20.7 27 20.3
003C5BC3 2019-03-18 09:34:53 20.7 27 20.5
003C5BC3 2019-03-18 09:02:23 20.7 27 20.4
003C5BC3 2019-03-18 08:29:55 20.6 27 20.4
003C5BC3 2019-03-18 07:57:26 20.6 27 20.3
003C5BC3 2019-03-18 07:24:57 20.6 27 20.3
003C5BC3 2019-03-18 06:52:28 20.6 27 20.1
003C5BC3 2019-03-18 06:20:00 20.6 27 20.1
003C5BC3 2019-03-18 05:47:32 20.6 27 20
003C5BC3 2019-03-18 05:15:02 20.6 27 20
003C5BC3 2019-03-18 04:42:35 20.6 27 19.9
003C5BC3 2019-03-18 04:10:07 20.6 27 19.6
003C5BC3 2019-03-18 03:37:38 20.6 27 19.8
003C5BC3 2019-03-18 03:05:09 20.6 27 19.9
003C5BC3 2019-03-18 02:32:40 20.6 27 19.8
003C5BC3 2019-03-18 02:00:10 20.6 27 19.5
003C5BC3 2019-03-18 01:27:41 20.6 26 19.5
003C5BC3 2019-03-18 00:55:12 20.6 26 19.5
003C5BC3 2019-03-18 00:22:42 20.6 26 19.6
003C5BC3 2019-03-17 23:50:12 20.6 26 19.8
003C5BC3 2019-03-17 23:17:44 20.6 26 20
003C5BC3 2019-03-17 22:45:15 20.6 26 20.1
003C5BC3 2019-03-17 22:12:44 20.6 26 20.3
003C5BC3 2019-03-17 21:40:15 20.6 26 20.1
003C5BC3 2019-03-17 21:07:45 20.6 26 20.3
003C5BC3 2019-03-17 20:35:15 20.6 26 20.2
003C5BC3 2019-03-17 20:02:45 20.6 26 20.4
003C5BC3 2019-03-17 19:30:16 20.6 26 20.4
003C5BC3 2019-03-17 18:57:46 20.6 26 20.6
003C5BC3 2019-03-17 18:25:17 20.6 26 20.6
003C5BC3 2019-03-17 17:52:48 20.6 26 20.5
003C5BC3 2019-03-17 17:20:18 20.7 26 20.5
003C5BC3 2019-03-17 16:47:48 20.6 27 20.4
003C5BC3 2019-03-17 16:15:18 20.7 27 20.5
003C5BC3 2019-03-17 15:42:47 20.7 27 20.6
003C5BC3 2019-03-17 15:10:17 20.7 27 20.6
003C5BC3 2019-03-17 14:37:48 20.7 27 20.6
003C5BC3 2019-03-17 14:05:19 20.7 27 20.6
003C5BC3 2019-03-17 13:32:49 20.7 27 20.5
003C5BC3 2019-03-17 13:00:19 20.7 27 20.6
003C5BC3 2019-03-17 12:27:49 20.7 27 20.7
003C5BC3 2019-03-17 11:55:20 20.6 27 20.7
003C5BC3 2019-03-17 11:22:50 20.7 27 20.8
003C5BC3 2019-03-17 10:50:20 20.7 27 20.7
003C5BC3 2019-03-17 10:17:51 20.6 27 20.4
003C5BC3 2019-03-17 09:45:22 20.7 27 20.2
003C5BC3 2019-03-17 09:12:53 20.7 27 20
003C5BC3 2019-03-17 08:40:24 20.7 27 20.1
003C5BC3 2019-03-17 08:07:22 20.6 27 21.3
003C5BC3 2019-03-17 07:34:54 20.6 27 21.3
003C5BC3 2019-03-17 07:02:26 20.6 27 21.1
003C5BC3 2019-03-17 06:29:57 20.6 27 21.2
003C5BC3 2019-03-17 05:57:29 20.6 27 21
003C5BC3 2019-03-17 05:25:00 20.6 27 21
003C5BC3 2019-03-17 04:52:31 20.6 27 21.2
003C5BC3 2019-03-17 04:20:02 20.6 27 21.1
003C5BC3 2019-03-17 03:47:32 20.6 27 21.1
003C5BC3 2019-03-17 03:15:03 20.6 27 21.1
003C5BC3 2019-03-17 02:42:35 20.6 27 21.1
003C5BC3 2019-03-17 02:10:07 20.6 27 21.1
003C5BC3 2019-03-17 01:37:38 20.6 27 21.1
003C5BC3 2019-03-17 01:05:09 20.7 27 21.1
003C5BC3 2019-03-17 00:32:40 20.6 27 20.9
003C5BC3 2019-03-17 00:00:13 20.6 27 21
003C5BC3 2019-03-16 23:27:43 20.6 27 20.9
003C5BC3 2019-03-16 22:55:14 20.6 27 20.9
003C5BC3 2019-03-16 22:22:45 20.6 27 20.8
003C5BC3 2019-03-16 21:50:16 20.6 27 20.9
003C5BC3 2019-03-16 21:17:46 20.7 27 21.1
003C5BC3 2019-03-16 20:45:17 20.6 26 21.1
003C5BC3 2019-03-16 20:12:49 20.6 26 21.2
003C5BC3 2019-03-16 19:40:21 20.6 26 21.2
003C5BC3 2019-03-16 19:07:52 20.7 26 19.8
003C5BC3 2019-03-16 18:35:24 20.7 26 19.8
003C5BC3 2019-03-16 18:02:54 20.7 26 19.9
003C5BC3 2019-03-16 17:30:25 20.7 26 20
003C5BC3 2019-03-16 16:57:56 20.7 26 20
003C5BC3 2019-03-16 16:25:27 20.7 26 20
003C5BC3 2019-03-16 15:52:58 20.7 26 20
003C5BC3 2019-03-16 15:20:30 20.7 26 19.9
003C5BC3 2019-03-16 14:48:01 20.7 26 20.1
003C5BC3 2019-03-16 14:15:33 20.7 26 20.2
003C5BC3 2019-03-16 13:43:05 20.7 26 20.3
003C5BC3 2019-03-16 13:10:36 20.7 26 20.3
003C5BC3 2019-03-16 12:38:08 20.7 26 20.4
003C5BC3 2019-03-16 12:05:39 20.7 26 20.5
003C5BC3 2019-03-16 11:33:10 20.7 26 20.6
003C5BC3 2019-03-16 11:00:42 20.7 26 21.9
003C5BC3 2019-03-16 10:28:13 20.7 26 21.8
003C5BC3 2019-03-16 09:55:43 20.7 26 22.1
003C5BC3 2019-03-16 09:23:14 20.7 26 22
003C5BC3 2019-03-16 08:50:45 20.7 26 22.1
003C5BC3 2019-03-16 08:18:15 20.7 26 22.2
003C5BC3 2019-03-16 07:45:46 20.7 26 22
003C5BC3 2019-03-16 07:13:18 20.7 26 22.1
003C5BC3 2019-03-16 06:40:49 20.7 26 22
003C5BC3 2019-03-16 06:08:21 20.7 26 22
003C5BC3 2019-03-16 05:35:53 20.7 26 22
003C5BC3 2019-03-16 05:02:51 20.7 26 22.1
003C5BC3 2019-03-16 04:30:23 20.7 26 22
003C5BC3 2019-03-16 03:57:55 20.7 26 22.1
003C5BC3 2019-03-16 03:25:27 20.7 26 22.2
003C5BC3 2019-03-16 02:52:59 20.7 26 22.1
003C5BC3 2019-03-16 02:20:32 20.7 26 22
003C5BC3 2019-03-16 01:48:03 20.7 26 21.9
003C5BC3 2019-03-16 01:15:34 20.7 26 21.9
003C5BC3 2019-03-16 00:43:06 20.7 27 21.8
003C5BC3 2019-03-16 00:10:37 20.7 26 21.7
003C5BC3 2019-03-15 23:38:10 20.7 26 21.6
003C5BC3 2019-03-15 23:05:40 20.7 27 21.6
003C5BC3 2019-03-15 22:33:09 20.8 27 21.7
003C5BC3 2019-03-15 22:00:40 20.8 26 20.4
003C5BC3 2019-03-15 21:28:12 20.8 26 20.3
003C5BC3 2019-03-15 20:55:42 20.8 26 20.2
003C5BC3 2019-03-15 20:23:13 20.9 26 20.4
003C5BC3 2019-03-15 19:50:44 20.9 26 20.5
003C5BC3 2019-03-15 19:18:16 20.9 26 20.4
003C5BC3 2019-03-15 18:45:48 20.9 26 20.4
003C5BC3 2019-03-15 18:13:19 20.9 26 20.4
003C5BC3 2019-03-15 17:40:51 20.9 26 20.4
003C5BC3 2019-03-15 17:08:21 20.9 26 20.5
003C5BC3 2019-03-15 16:35:53 20.9 26 20.5
003C5BC3 2019-03-15 16:03:23 20.9 26 20.3
003C5BC3 2019-03-15 15:30:56 20.9 26 20.3
003C5BC3 2019-03-15 14:58:26 20.9 26 20.5
003C5BC3 2019-03-15 14:25:58 20.9 26 20.2
003C5BC3 2019-03-15 13:53:29 20.9 26 20.1
003C5BC3 2019-03-15 13:21:00 20.9 26 20.1
003C5BC3 2019-03-15 12:48:32 20.9 26 20.3
003C5BC3 2019-03-15 12:16:03 20.9 26 20.6
003C5BC3 2019-03-15 11:43:33 20.8 26 20.4
003C5BC3 2019-03-15 11:11:04 20.8 26 20.5
003C5BC3 2019-03-15 10:38:36 20.8 25 20.6
003C5BC3 2019-03-15 10:06:07 20.7 25 20.7
003C5BC3 2019-03-15 09:33:39 20.7 25 20.6
003C5BC3 2019-03-15 09:01:12 20.7 25 20.6
003C5BC3 2019-03-15 08:28:43 20.6 25 20.7
003C5BC3 2019-03-15 07:56:15 20.6 25 20.7
003C5BC3 2019-03-15 07:23:47 20.7 24 20.5
003C5BC3 2019-03-15 06:51:19 20.7 24 20.4
003C5BC3 2019-03-15 06:18:50 20.7 24 20
003C5BC3 2019-03-15 05:46:21 20.7 24 19.9
003C5BC3 2019-03-15 05:13:53 20.7 24 20
003C5BC3 2019-03-15 04:41:23 20.7 24 19.9
003C5BC3 2019-03-15 04:08:55 20.7 24 19.8
003C5BC3 2019-03-15 03:36:27 20.7 24 19.6
003C5BC3 2019-03-15 03:03:59 20.7 24 19.4
003C5BC3 2019-03-15 02:31:30 20.7 24 19.4
003C5BC3 2019-03-15 01:58:27 20.7 24 19
003C5BC3 2019-03-15 01:25:58 20.7 24 19.3
003C5BC3 2019-03-15 00:53:29 20.7 24 19.7
003C5BC3 2019-03-15 00:21:00 20.7 24 19.8
003C5BC3 2019-03-14 23:48:31 20.7 24 19.6
003C5BC3 2019-03-14 23:16:01 20.8 24 19.3
003C5BC3 2019-03-14 22:43:31 20.8 24 19.6
003C5BC3 2019-03-14 22:11:01 20.8 24 19.5
003C5BC3 2019-03-14 21:38:32 20.8 24 19.4
003C5BC3 2019-03-14 21:06:04 20.8 24 19.2
003C5BC3 2019-03-14 20:33:33 20.9 24 19
003C5BC3 2019-03-14 20:01:05 20.9 24 18.7
003C5BC3 2019-03-14 19:28:36 20.9 24 18.7
003C5BC3 2019-03-14 18:56:07 20.9 24 18.8
003C5BC3 2019-03-14 18:23:38 21 23 19.1
003C5BC3 2019-03-14 17:51:09 21 23 19.2
003C5BC3 2019-03-14 17:18:40 21 23 19.4
003C5BC3 2019-03-14 16:46:11 21 23 19.5
003C5BC3 2019-03-14 16:13:43 21 23 19.4
003C5BC3 2019-03-14 15:41:15 21 23 19.5
003C5BC3 2019-03-14 15:08:47 21 23 19.5
003C5BC3 2019-03-14 14:36:19 21 23 19.7
003C5BC3 2019-03-14 14:03:51 21 23 20
003C5BC3 2019-03-14 13:31:22 21 23 20.1
003C5BC3 2019-03-14 12:58:53 20.9 23 20.3
003C5BC3 2019-03-14 12:26:24 20.9 23 20.4
003C5BC3 2019-03-14 11:53:55 20.9 22 20.3
003C5BC3 2019-03-14 11:21:26 20.9 22 20.1
003C5BC3 2019-03-14 10:48:57 20.8 22 20.1
003C5BC3 2019-03-14 10:16:27 20.8 22 20.1
003C5BC3 2019-03-14 09:43:58 20.8 21 20.3
003C5BC3 2019-03-14 09:11:29 20.7 21 20.1
003C5BC3 2019-03-14 08:39:00 20.7 20 21.5
003C5BC3 2019-03-14 04:51:38 20.7 19 21.7
003C5BC3 2019-03-14 04:19:10 20.7 18 21.6
003C5BC3 2019-03-14 03:46:42 20.7 18 21.5
003C5BC3 2019-03-14 03:14:13 20.7 18 21.4
003C5BC3 2019-03-14 02:41:45 20.7 18 22.5
003C5BC3 2019-03-14 02:09:17 20.7 18 22.5
003C5BC3 2019-03-14 01:36:49 20.7 18 22.5
003C5BC3 2019-03-14 01:04:21 20.7 17 22.4
003C5BC3 2019-03-14 00:31:53 20.7 17 22.4
003C5BC3 2019-03-13 23:59:24 20.7 17 22.3
003C5BC3 2019-03-13 23:26:56 20.7 17 22.2
003C5BC3 2019-03-13 22:53:54 20.7 17 22.2
003C5BC3 2019-03-13 22:21:26 20.7 17 22.3
003C5BC3 2019-03-13 21:48:57 20.7 17 22.4
003C5BC3 2019-03-13 21:16:29 20.8 17 22.6
003C5BC3 2019-03-13 20:44:01 20.8 17 22.6
003C5BC3 2019-03-13 20:11:32 20.8 16 22.7
003C5BC3 2019-03-13 19:39:03 20.8 16 21.9
003C5BC3 2019-03-13 19:06:34 20.8 16 22
003C5BC3 2019-03-13 18:34:05 20.9 16 22.1
003C5BC3 2019-03-13 18:01:36 21 16 22.2
003C5BC3 2019-03-13 17:29:07 21 16 22.5
003C5BC3 2019-03-13 16:56:38 21 16 22.6
003C5BC3 2019-03-13 16:24:08 21 16 22.6
003C5BC3 2019-03-13 15:51:40 21 16 22.7
003C5BC3 2019-03-13 15:19:11 21 16 22.9
003C5BC3 2019-03-13 14:46:41 20.9 16 23.1
003C5BC3 2019-03-13 14:14:14 20.9 16 23.3
003C5BC3 2019-03-13 13:41:46 20.9 16 22.5
003C5BC3 2019-03-13 13:09:17 20.9 16 22.8
003C5BC3 2019-03-13 12:36:48 20.9 16 22.9
003C5BC3 2019-03-13 12:04:20 20.9 16 23
003C5BC3 2019-03-13 11:31:53 20.9 16 23.2
003C5BC3 2019-03-13 10:59:23 20.8 16 23.3
003C5BC3 2019-03-13 10:26:54 20.7 16 23.4
003C5BC3 2019-03-13 09:54:25 20.6 16 23.4
003C5BC3 2019-03-13 09:21:57 20.5 15 23.4
003C5BC3 2019-03-13 08:49:28 20.3 15 23.4
003C5BC3 2019-03-13 08:17:01 20.4 15 23.4
003C5BC3 2019-03-13 07:44:33 20.4 15 23.2
003C5BC3 2019-03-13 07:12:05 20.4 15 23.3
003C5BC3 2019-03-13 06:39:36 20.4 15 23.3
003C5BC3 2019-03-13 06:07:09 20.4 16 23.2
003C5BC3 2019-03-13 05:34:40 20.4 16 23.2
003C5BC3 2019-03-13 05:02:13 20.4 16 23
003C5BC3 2019-03-13 04:29:44 20.5 16 22.9
003C5BC3 2019-03-13 03:57:16 20.5 16 22.8
003C5BC3 2019-03-13 03:24:47 20.5 16 22.7
003C5BC3 2019-03-13 02:52:18 20.5 16 22.7
003C5BC3 2019-03-13 02:19:50 20.5 16 23.4
003C5BC3 2019-03-13 01:47:21 20.5 16 23.4
003C5BC3 2019-03-13 01:14:52 20.5 16 23.2
003C5BC3 2019-03-13 00:42:22 20.5 16 23.2
003C5BC3 2019-03-13 00:09:53 20.6 16 23.1
003C5BC3 2019-03-12 23:37:24 20.6 16 22.9
003C5BC3 2019-03-12 23:04:55 20.6 16 23
003C5BC3 2019-03-12 22:32:27 20.6 16 23
003C5BC3 2019-03-12 21:59:58 20.6 16 23.6
003C5BC3 2019-03-12 21:27:30 20.7 16 24.2
003C5BC3 2019-03-12 20:55:03 20.7 16 24.7
003C5BC3 2019-03-12 20:22:35 20.7 16 25.1
003C5BC3 2019-03-12 19:49:33 20.7 16 25.7
003C5BC3 2019-03-12 19:17:05 20.7 16 26.1
003C5BC3 2019-03-12 18:44:36 20.7 16 26.4
003C5BC3 2019-03-12 18:12:09 20.8 16 26.7
003C5BC3 2019-03-12 17:39:40 20.8 16 27
003C5BC3 2019-03-12 17:07:12 20.8 16 27.3
003C5BC3 2019-03-12 16:34:44 20.8 16 27.6
003C5BC3 2019-03-12 16:02:15 20.8 16 27.8
003C5BC3 2019-03-12 15:29:47 20.8 16 28.1
003C5BC3 2019-03-12 14:57:20 20.8 16 28.3
003C5BC3 2019-03-12 14:24:51 20.7 16 28.5
003C5BC3 2019-03-12 13:52:23 20.7 16 28.7
003C5BC3 2019-03-12 13:19:54 20.7 16 28.7
003C5BC3 2019-03-12 12:47:26 20.7 16 28.9
003C5BC3 2019-03-12 12:14:57 20.7 16 29.1
003C5BC3 2019-03-12 11:42:30 20.6 16 29.3
003C5BC3 2019-03-12 11:10:02 20.6 16 29.4
003C5BC3 2019-03-12 10:37:33 20.5 16 29.6
003C5BC3 2019-03-12 10:05:05 20.5 16 29.7
003C5BC3 2019-03-12 09:32:36 20.4 16 29.9
003C5BC3 2019-03-12 09:00:08 20.4 16 29.9
003C5BC3 2019-03-12 08:27:40 20.4 16 29.9
003C5BC3 2019-03-12 07:55:12 20.4 16 29.9
003C5BC3 2019-03-12 07:22:44 20.4 16 29.9
003C5BC3 2019-03-12 06:50:15 20.4 16 30
003C5BC3 2019-03-12 06:17:47 20.4 16 30
003C5BC3 2019-03-12 05:45:18 20.4 16 30
003C5BC3 2019-03-12 05:12:49 20.5 16 29.9
003C5BC3 2019-03-12 04:40:21 20.4 16 29.7
003C5BC3 2019-03-12 04:07:52 20.5 16 29.5
003C5BC3 2019-03-12 03:35:23 20.5 16 29.4
003C5BC3 2019-03-12 03:02:55 20.5 16 29.2
003C5BC3 2019-03-12 02:30:26 20.5 16 29
003C5BC3 2019-03-12 01:57:58 20.5 16 28.8
003C5BC3 2019-03-12 01:25:29 20.5 17 28.6
003C5BC3 2019-03-12 00:52:59 20.5 17 28.4
003C5BC3 2019-03-12 00:20:32 20.5 17 28.2
003C5BC3 2019-03-11 23:48:03 20.6 16 28
003C5BC3 2019-03-11 23:15:34 20.6 17 27.8
003C5BC3 2019-03-11 22:43:05 20.6 16 27.5
003C5BC3 2019-03-11 22:10:37 20.6 17 27.2
003C5BC3 2019-03-11 21:38:08 20.7 16 26.9
003C5BC3 2019-03-11 21:05:40 20.7 17 26.6
003C5BC3 2019-03-11 20:33:11 20.7 16 26.3
003C5BC3 2019-03-11 20:00:42 20.7 16 26
003C5BC3 2019-03-11 19:28:14 20.8 16 25.5
003C5BC3 2019-03-11 18:55:46 20.8 16 25.1
003C5BC3 2019-03-11 18:23:18 20.8 16 25.1
003C5BC3 2019-03-11 17:50:49 20.8 16 24.6
003C5BC3 2019-03-11 17:18:20 20.9 16 24.1
003C5BC3 2019-03-11 16:45:21 20.8 17 22.7
003C5BC3 2019-03-11 16:12:53 20.8 17 22.7
003C5BC3 2019-03-11 15:40:24 20.7 17 22.8
003C5BC3 2019-03-11 15:07:56 20.7 17 22.9
003C5BC3 2019-03-11 14:35:27 20.7 17 22.9
003C5BC3 2019-03-11 14:02:58 20.6 17 22.9
003C5BC3 2019-03-11 13:30:30 20.6 17 23
003C5BC3 2019-03-11 12:58:00 20.6 17 23
003C5BC3 2019-03-11 12:25:31 20.6 17 22.9
003C5BC3 2019-03-11 11:53:02 20.6 17 23.6
003C5BC3 2019-03-11 11:20:34 20.5 17 23.7
003C5BC3 2019-03-11 10:48:06 20.5 17 23.5
003C5BC3 2019-03-11 10:15:38 20.5 17 23.6
003C5BC3 2019-03-11 09:43:11 20.4 17 23.6
003C5BC3 2019-03-11 09:10:43 20.4 18 23.6
003C5BC3 2019-03-11 08:38:15 20.4 18 23.6
003C5BC3 2019-03-11 08:05:48 20.4 18 23.7
003C5BC3 2019-03-11 07:33:20 20.4 18 23.7
003C5BC3 2019-03-11 07:00:52 20.4 18 23.6
003C5BC3 2019-03-11 06:28:23 20.4 18 23.6
003C5BC3 2019-03-11 05:55:54 20.4 18 23.6
003C5BC3 2019-03-11 05:23:27 20.4 19 22.8
003C5BC3 2019-03-11 04:50:58 20.5 19 22.8
003C5BC3 2019-03-11 04:18:30 20.4 19 22.7
003C5BC3 2019-03-11 03:46:02 20.5 19 22.8
003C5BC3 2019-03-11 03:13:33 20.5 19 22.8
003C5BC3 2019-03-11 02:41:04 20.5 19 22.7
003C5BC3 2019-03-11 02:08:35 20.5 19 22.6
003C5BC3 2019-03-11 01:36:06 20.5 19 22.5
003C5BC3 2019-03-11 01:03:36 20.5 19 22.4
003C5BC3 2019-03-11 00:31:08 20.5 20 22.4
003C5BC3 2019-03-10 23:58:37 20.5 20 22.4
003C5BC3 2019-03-10 23:26:09 20.5 20 22.3
003C5BC3 2019-03-10 22:53:40 20.6 20 22.2
003C5BC3 2019-03-10 22:21:11 20.6 20 21.1
003C5BC3 2019-03-10 21:48:42 20.6 20 21
003C5BC3 2019-03-10 21:16:13 20.6 20 21.1
003C5BC3 2019-03-10 20:43:45 20.6 20 21
003C5BC3 2019-03-10 20:11:16 20.6 20 20.8
003C5BC3 2019-03-10 19:38:47 20.7 20 20.8
003C5BC3 2019-03-10 19:06:18 20.7 20 20.8
003C5BC3 2019-03-10 18:33:49 20.7 21 20.7
003C5BC3 2019-03-10 18:01:21 20.7 21 20.7
003C5BC3 2019-03-10 17:28:52 20.7 21 20.7
003C5BC3 2019-03-10 16:56:25 20.7 21 20.8
003C5BC3 2019-03-10 16:23:57 20.7 21 20.8
003C5BC3 2019-03-10 15:51:28 20.7 22 21
003C5BC3 2019-03-10 15:18:59 20.7 22 21.1
003C5BC3 2019-03-10 14:46:30 20.7 23 21.1
003C5BC3 2019-03-10 14:14:02 20.7 24 20.9
003C5BC3 2019-03-10 13:41:01 20.6 24 20.9
003C5BC3 2019-03-10 13:08:32 20.6 24 20.8
003C5BC3 2019-03-10 12:36:03 20.6 24 20.9
003C5BC3 2019-03-10 12:03:35 20.6 24 21
003C5BC3 2019-03-10 11:31:07 20.5 24 21
003C5BC3 2019-03-10 10:58:39 20.6 24 20.9
003C5BC3 2019-03-10 10:26:09 20.6 24 20.9
003C5BC3 2019-03-10 09:53:41 20.6 24 21
003C5BC3 2019-03-10 09:21:12 20.6 24 21.2
003C5BC3 2019-03-10 08:48:44 20.6 24 21.2
003C5BC3 2019-03-10 08:16:15 20.6 24 21.3
003C5BC3 2019-03-10 07:43:46 20.6 24 21.3
003C5BC3 2019-03-10 07:11:18 20.6 24 21.4
003C5BC3 2019-03-10 06:38:49 20.6 24 21.3
003C5BC3 2019-03-10 06:06:20 20.6 24 21.5
003C5BC3 2019-03-10 05:33:51 20.6 24 21.4
003C5BC3 2019-03-10 05:01:20 20.6 24 21.4
003C5BC3 2019-03-10 04:28:49 20.6 24 21.5
003C5BC3 2019-03-10 03:56:20 20.6 24 21.4
003C5BC3 2019-03-10 03:23:51 20.6 24 21.5
003C5BC3 2019-03-10 02:51:22 20.6 24 21.6
003C5BC3 2019-03-10 02:18:52 20.6 24 21.5
003C5BC3 2019-03-10 01:46:23 20.6 24 21.6
003C5BC3 2019-03-10 01:13:54 20.6 24 21.8
003C5BC3 2019-03-10 00:41:25 20.6 24 21.6
003C5BC3 2019-03-10 00:08:55 20.6 24 21.8
003C5BC3 2019-03-09 23:36:26 20.7 24 21.8
003C5BC3 2019-03-09 23:03:58 20.6 24 22
003C5BC3 2019-03-09 22:31:29 20.7 24 22
003C5BC3 2019-03-09 21:59:00 20.7 24 22
003C5BC3 2019-03-09 21:26:31 20.7 24 22
003C5BC3 2019-03-09 20:54:02 20.7 23 22.2
003C5BC3 2019-03-09 20:21:33 20.7 23 22.1
003C5BC3 2019-03-09 19:49:03 20.7 23 22.1
003C5BC3 2019-03-09 19:16:34 20.7 23 22.1
003C5BC3 2019-03-09 18:44:04 20.8 23 22.1
003C5BC3 2019-03-09 18:11:35 20.8 23 22.2
003C5BC3 2019-03-09 17:39:07 20.8 23 22.2
003C5BC3 2019-03-09 17:06:37 20.8 23 22.3
003C5BC3 2019-03-09 16:34:09 20.8 23 22.2
003C5BC3 2019-03-09 16:01:40 20.8 23 22.2
003C5BC3 2019-03-09 15:29:11 20.8 24 22.3
003C5BC3 2019-03-09 14:56:43 20.8 24 22.2
003C5BC3 2019-03-09 14:24:15 20.8 24 22.5
003C5BC3 2019-03-09 13:51:46 20.7 24 22.5
003C5BC3 2019-03-09 13:19:17 20.7 24 22.3
003C5BC3 2019-03-09 12:46:49 20.7 24 22.4
003C5BC3 2019-03-09 12:14:21 20.7 24 22.3
003C5BC3 2019-03-09 11:41:53 20.7 24 22.4
003C5BC3 2019-03-09 11:09:25 20.7 24 22.4
003C5BC3 2019-03-09 10:36:24 20.6 24 22.5
003C5BC3 2019-03-09 10:03:56 20.6 24 22.4
003C5BC3 2019-03-09 09:31:27 20.6 25 22.4
003C5BC3 2019-03-09 08:58:59 20.6 25 22.5
003C5BC3 2019-03-09 08:26:31 20.6 25 22.5
003C5BC3 2019-03-09 07:54:02 20.6 25 22.4
003C5BC3 2019-03-09 07:21:34 20.6 25 22.5
003C5BC3 2019-03-09 06:49:06 20.6 26 22.3
003C5BC3 2019-03-09 06:16:38 20.7 26 22.3
003C5BC3 2019-03-09 05:44:09 20.7 26 22.1
003C5BC3 2019-03-09 05:11:42 20.7 26 21.9
003C5BC3 2019-03-09 04:39:11 20.7 26 21.9
003C5BC3 2019-03-09 04:06:43 20.8 26 21.8
003C5BC3 2019-03-09 03:34:14 20.8 26 21.7
003C5BC3 2019-03-09 03:01:46 20.8 27 21.5
003C5BC3 2019-03-09 02:29:18 20.8 27 21.3
003C5BC3 2019-03-09 01:56:50 20.8 27 22.3
003C5BC3 2019-03-09 01:24:21 20.8 27 22.1
003C5BC3 2019-03-09 00:51:52 20.8 27 22
003C5BC3 2019-03-09 00:19:22 20.8 27 22.1
003C5BC3 2019-03-08 23:46:54 20.9 27 22
003C5BC3 2019-03-08 23:14:25 20.9 27 21.9
003C5BC3 2019-03-08 22:41:57 20.9 27 22.7
003C5BC3 2019-03-08 22:09:27 20.9 27 22.8
003C5BC3 2019-03-08 21:37:00 21 27 22.8
003C5BC3 2019-03-08 21:04:32 21 27 22.7
003C5BC3 2019-03-08 20:32:04 21 27 22.8
003C5BC3 2019-03-08 19:59:35 21.1 27 22.6
003C5BC3 2019-03-08 19:27:08 21.1 27 22.6
003C5BC3 2019-03-08 18:54:38 21.1 27 22.6
003C5BC3 2019-03-08 18:22:10 21.1 27 22.5
003C5BC3 2019-03-08 17:49:42 21.2 27 22.4
003C5BC3 2019-03-08 17:17:14 21.2 27 23.3
003C5BC3 2019-03-08 16:44:45 21.2 27 23.3
003C5BC3 2019-03-08 16:12:17 21.2 27 23.4
003C5BC3 2019-03-08 15:39:48 21.1 27 23.4
003C5BC3 2019-03-08 15:07:21 21.1 26 23.4
003C5BC3 2019-03-08 14:34:53 21.1 26 23.4
003C5BC3 2019-03-08 14:02:23 21 26 23.4
003C5BC3 2019-03-08 13:29:53 21 26 23.4
003C5BC3 2019-03-08 12:57:25 21 26 23.5
003C5BC3 2019-03-08 12:24:54 20.9 26 22.8
003C5BC3 2019-03-08 11:52:25 20.9 25 22.8
003C5BC3 2019-03-08 11:19:55 20.9 25 22.9
003C5BC3 2019-03-08 10:47:25 20.9 25 22.8
003C5BC3 2019-03-08 10:14:57 20.8 25 22.8
003C5BC3 2019-03-08 09:42:28 20.8 25 22.9
003C5BC3 2019-03-08 09:09:59 20.8 24 22
003C5BC3 2019-03-08 08:37:31 20.8 24 21.8
003C5BC3 2019-03-08 08:05:01 20.8 24 22.6
003C5BC3 2019-03-08 07:31:59 20.8 24 22.5
003C5BC3 2019-03-08 06:59:30 20.8 23 22.4
003C5BC3 2019-03-08 06:27:02 20.8 23 22.3
003C5BC3 2019-03-08 05:54:35 20.8 23 22.2
003C5BC3 2019-03-08 05:22:06 20.8 23 22.1
003C5BC3 2019-03-08 04:49:37 20.7 23 22.3
003C5BC3 2019-03-08 04:17:09 20.8 23 21.2
003C5BC3 2019-03-08 03:44:41 20.8 23 21.1
003C5BC3 2019-03-08 03:12:11 20.8 23 21.1
003C5BC3 2019-03-08 02:39:42 20.8 23 21.2
003C5BC3 2019-03-08 02:07:14 20.8 23 21.1
003C5BC3 2019-03-08 01:34:45 20.8 23 21.2
003C5BC3 2019-03-08 01:02:16 20.8 22 21.2
003C5BC3 2019-03-08 00:29:47 20.8 22 21.1
003C5BC3 2019-03-07 23:57:17 20.8 22 21
003C5BC3 2019-03-07 23:24:48 20.8 22 20.9
003C5BC3 2019-03-07 22:52:20 20.9 22 20.7
003C5BC3 2019-03-07 22:19:51 20.9 22 20.5
003C5BC3 2019-03-07 21:47:20 20.9 22 20.3
003C5BC3 2019-03-07 21:14:52 20.9 22 20.3
003C5BC3 2019-03-07 20:42:21 21 22 20.2
003C5BC3 2019-03-07 20:09:52 21 22 20.1
003C5BC3 2019-03-07 19:37:21 21 22 20.1
003C5BC3 2019-03-07 19:04:52 21 22 18.1
003C5BC3 2019-03-07 18:32:22 21.1 22 18
003C5BC3 2019-03-07 17:59:52 21.2 22 18.1
003C5BC3 2019-03-07 17:27:24 21.2 22 18.2
003C5BC3 2019-03-07 16:54:55 21.3 22 18.2
003C5BC3 2019-03-07 16:22:26 21.2 21 18.2
003C5BC3 2019-03-07 15:49:57 21.2 21 18.2
003C5BC3 2019-03-07 15:17:28 21.2 21 17.9
003C5BC3 2019-03-07 14:44:57 21.2 21 17.8
003C5BC3 2019-03-07 14:12:28 21.1 20 17.6
003C5BC3 2019-03-07 13:39:58 21 19 17.2
003C5BC3 2019-03-07 13:07:28 21 19 16.9
003C5BC3 2019-03-07 12:34:59 21 19 16.7
003C5BC3 2019-03-07 12:02:30 21 18 16.5
003C5BC3 2019-03-07 11:30:00 20.9 18 17
003C5BC3 2019-03-07 10:57:31 20.9 18 17.1
003C5BC3 2019-03-07 10:25:02 20.8 17 16.7
003C5BC3 2019-03-07 09:52:32 20.8 16 16.7
003C5BC3 2019-03-07 09:20:04 20.8 16 16.8
003C5BC3 2019-03-07 08:47:35 20.8 16 17.1
003C5BC3 2019-03-07 08:15:05 20.8 15 17.2
003C5BC3 2019-03-07 07:42:36 20.8 15 17
003C5BC3 2019-03-07 07:10:06 20.8 15 17
003C5BC3 2019-03-07 06:37:37 20.8 15 16.9
003C5BC3 2019-03-07 06:05:08 20.8 14 16.7
003C5BC3 2019-03-07 05:32:39 20.8 14 16.5
003C5BC3 2019-03-07 05:00:10 20.8 14 16.6
003C5BC3 2019-03-07 04:27:06 20.8 14 16.8
003C5BC3 2019-03-07 03:54:36 20.8 14 16.7
003C5BC3 2019-03-07 03:22:07 20.8 13 16.9
003C5BC3 2019-03-07 02:49:37 20.8 13 16.9
003C5BC3 2019-03-07 02:17:08 20.8 13 16.7
003C5BC3 2019-03-07 01:44:39 20.8 13 16.7
003C5BC3 2019-03-07 01:12:10 20.8 13 16.8
003C5BC3 2019-03-07 00:39:41 20.7 13 16.7
003C5BC3 2019-03-07 00:07:12 20.8 13 16.7
003C5BC3 2019-03-06 23:34:44 20.8 13 19.3
003C5BC3 2019-03-06 23:02:14 20.8 13 19.5
003C5BC3 2019-03-06 22:29:45 20.8 12 19.3
003C5BC3 2019-03-06 21:57:15 20.8 12 19.2
003C5BC3 2019-03-06 21:24:46 20.9 12 19.2
003C5BC3 2019-03-06 20:52:17 20.8 12 19.3
003C5BC3 2019-03-06 20:19:51 20.9 12 19.3
003C5BC3 2019-03-06 19:47:19 20.9 12 19.3
003C5BC3 2019-03-06 19:14:50 20.9 12 19.3
003C5BC3 2019-03-06 18:42:21 20.9 12 19.3
003C5BC3 2019-03-06 18:09:52 20.9 12 19.3
003C5BC3 2019-03-06 17:37:24 21 12 19.5
003C5BC3 2019-03-06 17:04:55 21 12 19.6
003C5BC3 2019-03-06 16:32:25 21 12 19.6
003C5BC3 2019-03-06 15:59:55 21 12 19.6
003C5BC3 2019-03-06 15:27:27 21 12 19.4
003C5BC3 2019-03-06 14:54:57 20.9 12 19.3
003C5BC3 2019-03-06 14:22:29 20.8 12 19.3
003C5BC3 2019-03-06 13:50:00 20.8 11 19.3
003C5BC3 2019-03-06 13:17:33 20.7 11 19.3
003C5BC3 2019-03-06 12:45:05 20.7 12 19.3
003C5BC3 2019-03-06 12:12:34 20.7 12 19.3
003C5BC3 2019-03-06 11:40:05 20.7 12 19.2
003C5BC3 2019-03-06 11:07:35 20.6 12 19.2
003C5BC3 2019-03-06 10:35:08 20.6 12 19.2
003C5BC3 2019-03-06 10:02:37 20.5 12 16.5
003C5BC3 2019-03-06 09:30:08 20.5 12 16.3
003C5BC3 2019-03-06 08:57:39 20.5 12 16.5
003C5BC3 2019-03-06 08:25:09 20.5 12 16.6
003C5BC3 2019-03-06 07:52:38 20.6 12 16.7
003C5BC3 2019-03-06 07:20:09 20.6 13 16.6
003C5BC3 2019-03-06 06:47:38 20.6 13 16.8
003C5BC3 2019-03-06 06:15:10 20.6 13 16.8
003C5BC3 2019-03-06 05:42:39 20.6 13 17
003C5BC3 2019-03-06 05:10:11 20.6 13 16.9
003C5BC3 2019-03-06 04:37:41 20.6 13 16.9
003C5BC3 2019-03-06 04:05:12 20.6 13 16.6
003C5BC3 2019-03-06 03:32:44 20.7 13 16.4
003C5BC3 2019-03-06 03:00:15 20.7 13 16.4
003C5BC3 2019-03-06 02:27:47 20.7 13 16.1
003C5BC3 2019-03-06 01:55:21 20.7 13 16.6
003C5BC3 2019-03-06 01:22:17 20.7 13 16.3
003C5BC3 2019-03-06 00:49:48 20.7 14 16.1
003C5BC3 2019-03-06 00:17:18 20.8 14 16.1
003C5BC3 2019-03-05 23:44:49 20.8 14 16
003C5BC3 2019-03-05 23:12:19 20.9 14 16.5
003C5BC3 2019-03-05 22:39:51 20.9 14 16.5
003C5BC3 2019-03-05 22:07:23 20.9 14 16.6
003C5BC3 2019-03-05 21:34:55 20.9 14 16.5
003C5BC3 2019-03-05 21:02:25 20.9 14 16.4
003C5BC3 2019-03-05 20:29:56 20.9 14 16.4
003C5BC3 2019-03-05 19:57:29 20.9 14 16.4
003C5BC3 2019-03-05 19:25:00 21 14 16.2
003C5BC3 2019-03-05 18:52:31 21 14 16.3
003C5BC3 2019-03-05 18:20:01 21 14 16.3
003C5BC3 2019-03-05 17:47:32 21 15 16.4
003C5BC3 2019-03-05 17:15:04 21 15 16.3
003C5BC3 2019-03-05 16:42:36 21 15 19
003C5BC3 2019-03-05 16:10:07 21 16 19.2
003C5BC3 2019-03-05 15:37:38 20.9 16 19.2
003C5BC3 2019-03-05 15:05:09 20.8 16 19.2
003C5BC3 2019-03-05 14:32:41 20.7 17 19.2
003C5BC3 2019-03-05 14:00:12 20.7 17 19.2
003C5BC3 2019-03-05 13:27:43 20.7 17 19.3
003C5BC3 2019-03-05 12:55:13 20.6 17 19.1
003C5BC3 2019-03-05 12:22:44 20.6 17 19.2
003C5BC3 2019-03-05 11:50:13 20.6 17 19.2
003C5BC3 2019-03-05 11:17:44 20.6 18 19.2
003C5BC3 2019-03-05 10:45:14 20.6 18 19.3
003C5BC3 2019-03-05 10:12:45 20.6 18 19.3
003C5BC3 2019-03-05 09:40:17 20.5 18 19.1
003C5BC3 2019-03-05 09:07:48 20.6 18 19.1
003C5BC3 2019-03-05 08:35:19 20.6 18 20.8
003C5BC3 2019-03-05 08:02:50 20.6 19 20.8
003C5BC3 2019-03-05 07:30:22 20.6 19 20.9
003C5BC3 2019-03-05 06:57:53 20.6 19 20.8
003C5BC3 2019-03-05 06:25:24 20.6 19 20.7
003C5BC3 2019-03-05 05:52:55 20.6 19 20.7
003C5BC3 2019-03-05 04:47:56 20.6 19 20.7
003C5BC3 2019-03-05 04:15:27 20.6 19 20.5
003C5BC3 2019-03-05 03:42:58 20.6 19 20.4
003C5BC3 2019-03-05 03:10:30 20.6 19 18.8
003C5BC3 2019-03-05 02:38:02 20.6 19 18.6
003C5BC3 2019-03-05 02:05:33 20.6 19 18.7
003C5BC3 2019-03-05 01:33:07 20.6 19 18.7
003C5BC3 2019-03-05 01:00:36 20.6 18 18.6
003C5BC3 2019-03-05 00:28:08 20.6 18 18.6
003C5BC3 2019-03-04 23:55:38 20.6 18 18.8
003C5BC3 2019-03-04 23:23:08 20.6 18 18.9
003C5BC3 2019-03-04 22:50:39 20.6 18 18.8
003C5BC3 2019-03-04 22:17:36 20.7 18 18.8
003C5BC3 2019-03-04 21:45:07 20.6 18 18.8
003C5BC3 2019-03-04 21:12:38 20.6 18 20.6
003C5BC3 2019-03-04 20:40:09 20.6 18 20.6
003C5BC3 2019-03-04 20:07:40 20.6 18 20.6
003C5BC3 2019-03-04 19:35:11 20.6 18 18.8
003C5BC3 2019-03-04 19:02:41 20.6 18 18.8
003C5BC3 2019-03-04 18:30:13 20.6 18 18.7
003C5BC3 2019-03-04 17:57:44 20.6 18 18.8
003C5BC3 2019-03-04 17:25:15 20.6 18 18.8
003C5BC3 2019-03-04 16:52:50 20.6 18 18.8
003C5BC3 2019-03-04 16:20:16 20.6 18 18.9
003C5BC3 2019-03-04 15:47:47 20.5 18 19
003C5BC3 2019-03-04 15:15:17 20.5 18 19.1
003C5BC3 2019-03-04 14:42:49 20.5 17 18.8
003C5BC3 2019-03-04 14:10:19 20.4 17 18.8
003C5BC3 2019-03-04 13:37:50 20.4 17 18.8
003C5BC3 2019-03-04 13:05:21 20.4 17 18.7
003C5BC3 2019-03-04 12:32:53 20.4 17 18.7
003C5BC3 2019-03-04 12:00:21 20.3 17 18.7
003C5BC3 2019-03-04 11:27:52 20.3 17 18.6
003C5BC3 2019-03-04 10:55:23 20.3 17 18.3
003C5BC3 2019-03-04 10:22:55 20.2 17 18.3
003C5BC3 2019-03-04 09:50:27 20.2 17 20.3
003C5BC3 2019-03-04 09:17:56 20.2 17 20.3
003C5BC3 2019-03-04 08:45:28 20.1 17 20.3
003C5BC3 2019-03-04 08:13:00 20.1 18 18.2
003C5BC3 2019-03-04 07:40:31 20.2 18 18.2
003C5BC3 2019-03-04 07:08:02 20.2 18 18.1
003C5BC3 2019-03-04 06:35:33 20.2 18 18.1
003C5BC3 2019-03-04 06:03:04 20.2 18 18.3
003C5BC3 2019-03-04 05:30:38 20.2 18 18.3
003C5BC3 2019-03-04 04:58:06 20.1 18 18.4
003C5BC3 2019-03-04 04:25:37 20.2 18 20.3
003C5BC3 2019-03-04 03:53:08 20.2 18 20.3
003C5BC3 2019-03-04 03:20:39 20.2 18 20.4
003C5BC3 2019-03-04 02:48:10 20.2 18 20.4
003C5BC3 2019-03-04 02:15:42 20.2 18 21.7
003C5BC3 2019-03-04 01:43:12 20.2 18 22.7
003C5BC3 2019-03-04 01:10:45 20.2 18 22.7
003C5BC3 2019-03-04 00:38:17 20.2 17 22.7
003C5BC3 2019-03-04 00:05:44 20.2 18 22.7
003C5BC3 2019-03-03 23:33:16 20.2 18 23.5
003C5BC3 2019-03-03 23:00:49 20.2 17 23.5
003C5BC3 2019-03-03 22:28:18 20.2 17 23.5
003C5BC3 2019-03-03 21:55:52 20.2 18 23.5
003C5BC3 2019-03-03 21:23:22 20.2 18 23.6
003C5BC3 2019-03-03 20:50:54 20.2 18 23.6
003C5BC3 2019-03-03 20:18:27 20.3 18 22.8
003C5BC3 2019-03-03 19:45:58 20.5 18 22.8
003C5BC3 2019-03-03 19:44:40 20.2 18 22.9
003C5BC3 2019-03-03 19:12:12 20.3 18 23
003C5BC3 2019-03-03 18:39:43 20.3 18 23.1
003C5BC3 2019-03-03 18:07:15 20.3 18 23.1
003C5BC3 2019-03-03 17:34:47 20.3 18 23.2
003C5BC3 2019-03-03 17:02:18 20.3 18 23.2
003C5BC3 2019-03-03 16:29:49 20.3 18 23.9
003C5BC3 2019-03-03 15:57:23 20.3 18 23.9
003C5BC3 2019-03-03 15:24:52 20.3 18 23.9
003C5BC3 2019-03-03 14:52:25 20.3 18 24.5
003C5BC3 2019-03-03 14:19:54 20.3 18 24.5
003C5BC3 2019-03-03 13:47:25 20.3 18 24.5
003C5BC3 2019-03-03 13:14:55 20.3 18 23.9
003C5BC3 2019-03-03 12:42:26 20.3 18 23.2
003C5BC3 2019-03-03 12:09:57 20.3 18 23.4
003C5BC3 2019-03-03 11:37:28 20.3 18 23.4
003C5BC3 2019-03-03 11:04:59 20.3 18 23.4
003C5BC3 2019-03-03 10:32:31 20.3 18 22.5
003C5BC3 2019-03-03 10:00:04 20.3 18 22.4
003C5BC3 2019-03-03 09:27:32 20.3 18 22.5
003C5BC3 2019-03-03 08:55:07 20.3 18 22.6
003C5BC3 2019-03-03 08:22:34 20.3 18 22.5
003C5BC3 2019-03-03 07:50:06 20.3 18 22.5
003C5BC3 2019-03-03 07:17:34 20.4 18 22.5
003C5BC3 2019-03-03 06:45:06 20.4 18 22.5
003C5BC3 2019-03-03 06:12:34 20.4 18 22.4
003C5BC3 2019-03-03 05:40:05 20.4 18 22.3
003C5BC3 2019-03-03 05:07:33 20.4 18 22.3
003C5BC3 2019-03-03 04:35:05 20.4 18 22.2
003C5BC3 2019-03-03 04:02:35 20.4 18 22.1
003C5BC3 2019-03-03 03:30:06 20.4 18 22.1
003C5BC3 2019-03-03 02:57:36 20.4 18 20.9
003C5BC3 2019-03-03 02:25:06 20.4 18 20.8
003C5BC3 2019-03-03 01:52:38 20.4 18 19.2
003C5BC3 2019-03-03 01:20:06 20.5 18 16.4
003C5BC3 2019-03-03 00:47:37 20.5 18 16.3
003C5BC3 2019-03-03 00:15:08 20.5 18 16.6
003C5BC3 2019-03-02 23:42:39 20.5 18 16.3
003C5BC3 2019-03-02 23:10:10 20.5 18 15.8
003C5BC3 2019-03-02 22:37:40 20.5 18 18.5
003C5BC3 2019-03-02 22:05:10 20.5 18 18.6
003C5BC3 2019-03-02 21:32:41 20.5 17 18.6
003C5BC3 2019-03-02 21:00:11 20.5 17 20.5
003C5BC3 2019-03-02 20:27:42 20.5 17 20.3
003C5BC3 2019-03-02 19:55:13 20.5 17 20.3
003C5BC3 2019-03-02 19:22:44 20.6 17 20.2
003C5BC3 2019-03-02 18:50:14 20.6 17 20.2
003C5BC3 2019-03-02 18:17:46 20.6 17 20.3
003C5BC3 2019-03-02 17:45:17 20.6 17 20.4
003C5BC3 2019-03-02 17:12:47 20.6 17 20.3
003C5BC3 2019-03-02 16:39:46 20.6 17 20.3
003C5BC3 2019-03-02 16:07:19 20.6 17 20.3
003C5BC3 2019-03-02 15:34:48 20.6 17 20.3
003C5BC3 2019-03-02 15:02:19 20.5 17 20.3
003C5BC3 2019-03-02 14:29:52 20.5 16 20.3
003C5BC3 2019-03-02 13:57:21 20.5 16 20.3
003C5BC3 2019-03-02 13:24:51 20.5 16 20.2
003C5BC3 2019-03-02 12:52:22 20.5 16 20.2
003C5BC3 2019-03-02 12:19:52 20.5 16 20.2
003C5BC3 2019-03-02 11:47:24 20.5 16 20.1
003C5BC3 2019-03-02 11:14:55 20.5 16 20.1
003C5BC3 2019-03-02 10:42:25 20.4 16 20.2
003C5BC3 2019-03-02 10:09:56 20.5 16 18.3
003C5BC3 2019-03-02 09:37:27 20.5 16 18.3
003C5BC3 2019-03-02 09:04:59 20.5 15 18.4
003C5BC3 2019-03-02 08:32:30 20.5 15 18.5
003C5BC3 2019-03-02 08:00:01 20.5 15 15.3
003C5BC3 2019-03-02 07:27:32 20.5 15 15.6
003C5BC3 2019-03-02 06:55:02 20.5 15 15.7
003C5BC3 2019-03-02 06:22:36 20.6 15 16.1
003C5BC3 2019-03-02 05:50:02 20.6 15 16.2
003C5BC3 2019-03-02 05:17:32 20.6 15 16.3
003C5BC3 2019-03-02 04:45:03 20.6 15 16.1
003C5BC3 2019-03-02 04:12:35 20.6 15 16.1
003C5BC3 2019-03-02 03:40:05 20.6 15 16.1
003C5BC3 2019-03-02 03:07:36 20.7 15 16.2
003C5BC3 2019-03-02 02:35:06 20.7 14 16.2
003C5BC3 2019-03-02 02:02:37 20.7 14 16.5
003C5BC3 2019-03-02 01:30:08 20.8 14 16.7
003C5BC3 2019-03-02 00:57:38 20.8 14 17.1
003C5BC3 2019-03-02 00:25:11 20.8 14 17.1
003C5BC3 2019-03-01 23:52:39 20.9 14 17.2
003C5BC3 2019-03-01 23:20:11 20.9 14 17.3
003C5BC3 2019-03-01 22:47:40 21 14 17.3
003C5BC3 2019-03-01 22:15:09 21 14 17.6
003C5BC3 2019-03-01 21:42:42 21.1 14 17.8
003C5BC3 2019-03-01 21:10:11 21.1 14 18.2
003C5BC3 2019-03-01 20:37:42 21.1 14 18.2
003C5BC3 2019-03-01 20:05:13 21.1 14 18.6
003C5BC3 2019-03-01 19:32:44 21.1 14 18.6
003C5BC3 2019-03-01 19:00:15 21.1 14 18.6
003C5BC3 2019-03-01 18:27:46 21.2 14 18.8
003C5BC3 2019-03-01 17:55:16 21.2 14 18.7
003C5BC3 2019-03-01 17:22:47 21.3 14 18.8
003C5BC3 2019-03-01 16:50:17 21.3 15 18.6
003C5BC3 2019-03-01 16:17:47 21.2 15 18.9
003C5BC3 2019-03-01 15:45:18 21.1 15 18.8
003C5BC3 2019-03-01 15:12:48 21 16 18.9
003C5BC3 2019-03-01 14:40:18 20.9 16 18.9
003C5BC3 2019-03-01 14:07:47 20.9 16 18.9
003C5BC3 2019-03-01 13:34:42 20.9 16 18.8
003C5BC3 2019-03-01 13:02:12 20.9 16 19
003C5BC3 2019-03-01 12:29:44 20.9 17 19
003C5BC3 2019-03-01 11:57:13 20.9 17 18.9
003C5BC3 2019-03-01 11:24:43 20.9 17 19
003C5BC3 2019-03-01 10:52:12 20.8 17 19.3
003C5BC3 2019-03-01 10:19:42 20.7 17 19.6
003C5BC3 2019-03-01 09:47:12 20.6 18 19.7
003C5BC3 2019-03-01 09:14:42 20.6 18 19.9
003C5BC3 2019-03-01 08:42:12 20.6 18 19.8
003C5BC3 2019-03-01 08:09:42 20.6 18 19.8
003C5BC3 2019-03-01 07:37:13 20.6 19 19.5
003C5BC3 2019-03-01 07:04:44 20.7 19 19.4
003C5BC3 2019-03-01 06:32:13 20.7 19 19.1
003C5BC3 2019-03-01 05:59:43 20.7 19 20.8
003C5BC3 2019-03-01 05:27:12 20.7 20 20.7
003C5BC3 2019-03-01 04:54:42 20.7 20 20.5
003C5BC3 2019-03-01 04:22:10 20.7 20 20.7
003C5BC3 2019-03-01 03:49:39 20.7 20 20.8
003C5BC3 2019-03-01 03:17:08 20.7 21 20.8
003C5BC3 2019-03-01 02:44:37 20.8 21 20.7
003C5BC3 2019-03-01 02:12:07 20.8 21 20.6
003C5BC3 2019-03-01 01:39:37 20.8 21 20.8
003C5BC3 2019-03-01 01:07:07 20.8 22 20.8
003C5BC3 2019-03-01 00:34:37 20.8 22 20.8
003C5BC3 2019-03-01 00:02:07 20.9 22 20.8
003C5BC3 2019-02-28 23:29:36 20.9 22 20.7
003C5BC3 2019-02-28 22:57:06 20.9 23 20.5
003C5BC3 2019-02-28 22:24:35 20.9 23 21.8
003C5BC3 2019-02-28 21:52:06 21 23 21.6
003C5BC3 2019-02-28 21:19:34 21 23 21.5
003C5BC3 2019-02-28 20:47:05 21 24 21.3
003C5BC3 2019-02-28 20:14:36 21.1 24 21.3
003C5BC3 2019-02-28 19:42:05 21.1 24 21.2
003C5BC3 2019-02-28 19:09:35 21.2 24 21.2
003C5BC3 2019-02-28 18:37:05 21.2 24 21.4
003C5BC3 2019-02-28 18:04:34 21.3 25 21.4
003C5BC3 2019-02-28 17:32:05 21.4 25 21.4
003C5BC3 2019-02-28 16:59:35 21.4 26 21.4
003C5BC3 2019-02-28 16:27:05 21.4 26 20.1
003C5BC3 2019-02-28 15:54:35 21.4 26 20.1
003C5BC3 2019-02-28 15:22:05 21.3 25 20.1
003C5BC3 2019-02-28 14:49:35 21.3 25 19.9
003C5BC3 2019-02-28 14:17:03 21.3 25 20
003C5BC3 2019-02-28 13:44:34 21.3 25 20
003C5BC3 2019-02-28 13:12:05 21.3 25 19.9
003C5BC3 2019-02-28 12:39:36 21.2 25 20
003C5BC3 2019-02-28 12:07:06 21.2 24 19.7
003C5BC3 2019-02-28 11:34:36 21.1 24 19.8
003C5BC3 2019-02-28 11:02:07 21.1 24 19.8
003C5BC3 2019-02-28 10:29:04 20.9 23 19.9
003C5BC3 2019-02-28 09:56:36 20.9 23 20.2
003C5BC3 2019-02-28 09:24:05 20.9 23 18.1
003C5BC3 2019-02-28 08:51:37 20.8 22 18.2
003C5BC3 2019-02-28 08:19:05 20.9 22 18.3
003C5BC3 2019-02-28 07:46:37 20.8 22 18.5
003C5BC3 2019-02-28 07:14:07 20.8 22 18.4
003C5BC3 2019-02-28 06:41:37 20.9 22 18.6
003C5BC3 2019-02-28 06:09:05 20.9 22 18.4
003C5BC3 2019-02-28 05:36:36 20.9 22 17.8
003C5BC3 2019-02-28 05:04:06 20.9 22 17.7
003C5BC3 2019-02-28 04:31:37 20.9 22 17.6
003C5BC3 2019-02-28 03:59:08 20.9 22 17.7
003C5BC3 2019-02-28 03:26:38 20.9 22 17.6
003C5BC3 2019-02-28 02:54:08 20.9 22 17.9
003C5BC3 2019-02-28 02:21:38 20.9 22 18
003C5BC3 2019-02-28 01:49:09 20.9 22 18
003C5BC3 2019-02-28 01:16:38 21 22 17.7
003C5BC3 2019-02-28 00:44:09 21 22 17.6
003C5BC3 2019-02-28 00:11:39 21 23 17.4
003C5BC3 2019-02-27 23:39:09 21.1 23 17.3
003C5BC3 2019-02-27 23:06:38 21.1 23 17.3
003C5BC3 2019-02-27 22:34:08 21.1 23 17.2
003C5BC3 2019-02-27 22:01:39 21.2 23 17.4
003C5BC3 2019-02-27 21:29:07 21.2 23 17.4
003C5BC3 2019-02-27 20:56:38 21.2 23 17.5
003C5BC3 2019-02-27 20:24:09 21.3 23 17.3
003C5BC3 2019-02-27 19:51:39 21.3 24 17.7
003C5BC3 2019-02-27 19:19:12 21.4 24 18
003C5BC3 2019-02-27 18:46:41 21.5 24 17.8
003C5BC3 2019-02-27 18:14:12 21.5 24 17.7
003C5BC3 2019-02-27 17:41:43 21.6 25 18
003C5BC3 2019-02-27 17:09:13 21.7 25 18
003C5BC3 2019-02-27 16:36:43 21.6 26 18.1
003C5BC3 2019-02-27 16:04:13 21.6 26 18.6
003C5BC3 2019-02-27 15:31:44 21.5 26 18.8
003C5BC3 2019-02-27 14:59:14 21.4 26 19
003C5BC3 2019-02-27 14:26:45 21.3 26 19.1
003C5BC3 2019-02-27 13:54:17 21.3 25 19.2
003C5BC3 2019-02-27 13:21:45 21.3 25 19.2
003C5BC3 2019-02-27 12:49:16 21.3 25 19.3
003C5BC3 2019-02-27 12:16:47 21.2 25 19.5
003C5BC3 2019-02-27 11:44:18 21.2 25 19.6
003C5BC3 2019-02-27 11:11:48 21.1 25 19.7
003C5BC3 2019-02-27 10:39:19 21.1 25 19.9
003C5BC3 2019-02-27 10:06:50 21.1 24 20.3
003C5BC3 2019-02-27 09:34:20 21 24 20.5
003C5BC3 2019-02-27 09:01:50 21 24 20.6
003C5BC3 2019-02-27 08:29:20 21 24 20.8
003C5BC3 2019-02-27 07:56:51 21 23 20.9
003C5BC3 2019-02-27 07:23:49 21 24 20.8
003C5BC3 2019-02-27 06:51:19 21 23 20.7
003C5BC3 2019-02-27 06:18:51 21 23 20.7
003C5BC3 2019-02-27 05:46:21 21.1 23 20.6
003C5BC3 2019-02-27 05:13:52 21.1 23 20.7
003C5BC3 2019-02-27 04:41:22 21.1 23 20.5
003C5BC3 2019-02-27 04:08:52 21.1 24 20.5
003C5BC3 2019-02-27 03:36:23 21.1 23 21.7
003C5BC3 2019-02-27 03:03:54 21.1 24 21.5
003C5BC3 2019-02-27 02:31:24 21.2 24 21.4
003C5BC3 2019-02-27 01:58:54 21.2 24 22.4
003C5BC3 2019-02-27 01:26:25 21.2 24 22.3
003C5BC3 2019-02-27 00:53:55 21.2 24 22.3
003C5BC3 2019-02-27 00:21:25 21.3 24 22.2
003C5BC3 2019-02-26 23:48:56 21.3 24 22.1
003C5BC3 2019-02-26 23:16:26 21.4 24 21.9
003C5BC3 2019-02-26 22:43:57 21.4 24 22
003C5BC3 2019-02-26 22:11:28 21.5 24 22.9
003C5BC3 2019-02-26 21:38:59 21.6 24 23.6
003C5BC3 2019-02-26 21:06:29 21.6 24 24.1
003C5BC3 2019-02-26 20:33:59 21.6 24 24.7
003C5BC3 2019-02-26 20:01:30 21.7 24 25.2
003C5BC3 2019-02-26 19:29:00 21.7 24 25.6
003C5BC3 2019-02-26 18:56:29 21.8 24 26
003C5BC3 2019-02-26 18:23:58 21.8 24 26.4
003C5BC3 2019-02-26 17:51:29 21.9 24 26.7
003C5BC3 2019-02-26 17:18:59 21.9 25 27.1
003C5BC3 2019-02-26 16:46:30 21.8 25 27.4
003C5BC3 2019-02-26 16:14:00 21.8 25 27.7
003C5BC3 2019-02-26 15:41:30 21.7 25 27.9
003C5BC3 2019-02-26 15:09:00 21.6 25 28.2
003C5BC3 2019-02-26 14:36:31 21.5 25 28.4
003C5BC3 2019-02-26 14:04:02 21.6 25 28.4
003C5BC3 2019-02-26 13:31:33 21.5 25 28.7
003C5BC3 2019-02-26 12:59:04 21.5 25 28.9
003C5BC3 2019-02-26 12:26:35 21.4 25 28.9
003C5BC3 2019-02-26 11:54:06 21.4 25 29.1
003C5BC3 2019-02-26 11:21:42 21.3 24 29.3
003C5BC3 2019-02-26 10:49:11 21.2 24 29.5
003C5BC3 2019-02-26 10:16:43 21.1 24 29.7
003C5BC3 2019-02-26 09:44:13 21 24 29.8
003C5BC3 2019-02-26 09:11:45 21 23 30
003C5BC3 2019-02-26 08:39:17 21 23 30
003C5BC3 2019-02-26 08:06:48 21 23 30
003C5BC3 2019-02-26 07:34:21 21 23 30
003C5BC3 2019-02-26 07:01:52 21 23 30
003C5BC3 2019-02-26 06:29:22 21 22 30
003C5BC3 2019-02-26 05:56:52 21 22 30
003C5BC3 2019-02-26 05:24:24 21 22 30
003C5BC3 2019-02-26 04:51:55 21 22 30
003C5BC3 2019-02-26 04:18:55 21 22 29.8
003C5BC3 2019-02-26 03:46:26 21.1 22 29.6
003C5BC3 2019-02-26 03:13:56 21 22 29.5
003C5BC3 2019-02-26 02:41:26 21.1 22 29.5
003C5BC3 2019-02-26 02:08:58 21.1 22 29.3
003C5BC3 2019-02-26 01:36:29 21.1 22 29.1
003C5BC3 2019-02-26 01:04:00 21.2 22 28.8
003C5BC3 2019-02-26 00:31:32 21.2 22 28.6
003C5BC3 2019-02-25 23:59:03 21.2 21 28.2
003C5BC3 2019-02-25 23:26:32 21.3 21 28
003C5BC3 2019-02-25 22:54:03 21.3 21 27.7
003C5BC3 2019-02-25 22:21:34 21.4 21 27.4
003C5BC3 2019-02-25 21:49:05 21.4 21 27.1
003C5BC3 2019-02-25 21:16:35 21.5 21 26.7
003C5BC3 2019-02-25 20:44:07 21.5 21 26.4
003C5BC3 2019-02-25 20:11:38 21.5 21 26
003C5BC3 2019-02-25 19:39:08 21.6 21 25.5
003C5BC3 2019-02-25 19:06:38 21.6 21 25.1
003C5BC3 2019-02-25 18:34:08 21.6 22 24.5
003C5BC3 2019-02-25 18:01:38 21.7 22 23.9
003C5BC3 2019-02-25 17:29:07 21.7 22 23.2
003C5BC3 2019-02-25 16:56:36 21.7 22 22.3
003C5BC3 2019-02-25 16:24:05 21.7 22 19.6
003C5BC3 2019-02-25 15:51:36 21.7 23 19.7
003C5BC3 2019-02-25 15:19:08 21.6 23 19.7
003C5BC3 2019-02-25 14:46:38 21.5 23 19.7
003C5BC3 2019-02-25 14:14:06 21.4 23 17.6
003C5BC3 2019-02-25 13:41:41 21.3 23 18.5
003C5BC3 2019-02-25 13:09:08 21.2 23 18.8
003C5BC3 2019-02-25 12:36:38 21.2 22 19.1
003C5BC3 2019-02-25 11:31:39 21 23 19
003C5BC3 2019-02-25 10:59:09 20.9 23 18.9
003C5BC3 2019-02-25 10:26:42 20.9 23 18.7
003C5BC3 2019-02-25 09:54:10 20.7 22 18.9
003C5BC3 2019-02-25 09:21:41 20.7 22 19
003C5BC3 2019-02-25 08:49:12 20.7 22 19.3
003C5BC3 2019-02-25 08:16:44 20.7 22 19.3
003C5BC3 2019-02-25 07:44:15 20.7 22 19.4
003C5BC3 2019-02-25 07:11:45 20.7 22 19.4
003C5BC3 2019-02-25 06:39:15 20.7 22 19.6
003C5BC3 2019-02-25 06:06:46 20.7 22 19.6
003C5BC3 2019-02-25 05:34:17 20.7 22 19.7
003C5BC3 2019-02-25 05:01:47 20.7 22 19.7
003C5BC3 2019-02-25 04:29:18 20.8 22 19.6
003C5BC3 2019-02-25 03:56:49 20.7 22 19.6
003C5BC3 2019-02-25 03:24:22 20.8 22 19.6
003C5BC3 2019-02-25 02:51:50 20.8 22 19.7
003C5BC3 2019-02-25 01:46:50 20.8 22 19.7
003C5BC3 2019-02-25 01:13:48 20.8 22 19.8
003C5BC3 2019-02-25 00:41:19 20.8 23 19.9
003C5BC3 2019-02-25 00:08:50 20.8 23 19.4
003C5BC3 2019-02-24 23:36:20 20.8 23 19.3
003C5BC3 2019-02-24 23:03:50 20.8 23 19
003C5BC3 2019-02-24 22:31:21 20.9 23 19
003C5BC3 2019-02-24 21:58:51 20.9 23 18.9
003C5BC3 2019-02-24 21:26:21 20.9 23 18.9
003C5BC3 2019-02-24 20:53:52 20.9 23 19
003C5BC3 2019-02-24 20:21:23 20.9 23 18.7
003C5BC3 2019-02-24 19:48:53 20.9 23 18.7
003C5BC3 2019-02-24 19:16:24 20.9 22 18.7
003C5BC3 2019-02-24 18:43:54 20.9 22 18.7
003C5BC3 2019-02-24 18:11:24 20.9 22 18.4
003C5BC3 2019-02-24 17:38:54 20.9 22 18.5
003C5BC3 2019-02-24 17:06:25 20.9 22 18.1
003C5BC3 2019-02-24 16:33:56 20.9 22 18
003C5BC3 2019-02-24 16:01:28 20.9 22 18
003C5BC3 2019-02-24 15:29:02 20.9 22 18.3
003C5BC3 2019-02-24 14:56:32 20.9 22 18.4
003C5BC3 2019-02-24 14:24:03 20.9 22 18.2
003C5BC3 2019-02-24 13:51:32 20.9 21 18.6
003C5BC3 2019-02-24 13:19:05 20.9 21 18.6
003C5BC3 2019-02-24 12:46:34 20.9 21 18.5
003C5BC3 2019-02-24 12:14:05 20.9 21 18.7
003C5BC3 2019-02-24 11:41:37 20.9 21 18.5
003C5BC3 2019-02-24 11:09:08 20.9 21 18.4
003C5BC3 2019-02-24 10:36:40 20.9 21 18.5
003C5BC3 2019-02-24 10:04:08 20.9 21 18.5
003C5BC3 2019-02-24 09:31:39 20.9 21 18.9
003C5BC3 2019-02-24 08:59:10 20.9 21 19.1
003C5BC3 2019-02-24 08:26:39 20.9 21 19.2
003C5BC3 2019-02-24 07:54:09 20.9 21 18.9
003C5BC3 2019-02-24 07:21:39 20.9 21 19.1
003C5BC3 2019-02-24 06:49:09 20.9 21 19.3
003C5BC3 2019-02-24 06:16:39 20.9 20 19.4
003C5BC3 2019-02-24 05:44:09 21 20 19.3
003C5BC3 2019-02-24 05:11:40 21 20 19.4
003C5BC3 2019-02-24 04:39:10 21 20 19.6
003C5BC3 2019-02-24 04:06:43 21 20 19.5
003C5BC3 2019-02-24 03:34:11 21 20 19.5
003C5BC3 2019-02-24 03:01:41 21 20 19.4
003C5BC3 2019-02-24 02:29:11 21 20 19.4
003C5BC3 2019-02-24 01:56:41 21 20 19.1
003C5BC3 2019-02-24 01:24:15 21.1 20 19.3
003C5BC3 2019-02-24 00:51:43 21.1 20 19.1
003C5BC3 2019-02-24 00:19:17 21.1 19 18.9
003C5BC3 2019-02-23 23:46:45 21.1 19 18.9
003C5BC3 2019-02-23 23:14:16 21.1 19 18.9
003C5BC3 2019-02-23 22:41:47 21.2 19 18.9
003C5BC3 2019-02-23 22:08:45 21.2 19 18.7
003C5BC3 2019-02-23 21:36:15 21.2 19 18.7
003C5BC3 2019-02-23 21:03:46 21.3 19 18.7
003C5BC3 2019-02-23 20:31:15 21.3 18 18.6
003C5BC3 2019-02-23 19:58:47 21.3 18 18.7
003C5BC3 2019-02-23 19:26:17 21.3 18 18.9
003C5BC3 2019-02-23 18:53:47 21.3 18 18.8
003C5BC3 2019-02-23 18:21:18 21.3 17 18.9
003C5BC3 2019-02-23 17:48:49 21.3 17 18.7
003C5BC3 2019-02-23 17:16:20 21.3 17 18.8
003C5BC3 2019-02-23 16:43:52 21.2 17 18.8
003C5BC3 2019-02-23 16:11:22 21.2 17 18.6
003C5BC3 2019-02-23 15:38:54 21.1 17 18.7
003C5BC3 2019-02-23 15:06:22 21 16 18.7
003C5BC3 2019-02-23 14:33:53 21 16 18.8
003C5BC3 2019-02-23 14:01:27 21 16 18.8
003C5BC3 2019-02-23 12:56:27 21 15 18.7
003C5BC3 2019-02-23 12:23:58 21 15 18.6
003C5BC3 2019-02-23 11:51:29 21 15 18.7
003C5BC3 2019-02-23 11:18:59 20.9 15 18.7
003C5BC3 2019-02-23 10:46:29 21 15 18.7
003C5BC3 2019-02-23 10:14:00 20.9 15 18.8
003C5BC3 2019-02-23 09:41:32 20.9 14 19.1
003C5BC3 2019-02-23 09:09:04 21 14 19.2
003C5BC3 2019-02-23 08:36:33 20.9 14 19.1
003C5BC3 2019-02-23 08:04:06 21 14 19
003C5BC3 2019-02-23 07:31:34 20.9 14 18.6
003C5BC3 2019-02-23 06:59:05 20.9 14 18.5
003C5BC3 2019-02-23 06:26:37 20.9 13 18.7
003C5BC3 2019-02-23 05:54:08 21 13 18.9
003C5BC3 2019-02-23 05:21:40 20.9 13 18.6
003C5BC3 2019-02-23 04:49:10 20.9 13 18.6
003C5BC3 2019-02-23 04:16:40 21 13 18.8
003C5BC3 2019-02-23 03:44:13 20.9 13 18.7
003C5BC3 2019-02-23 03:11:45 21 13 18.5
003C5BC3 2019-02-23 02:39:17 21 12 18.6
003C5BC3 2019-02-23 02:06:47 21 12 18.9
003C5BC3 2019-02-23 01:34:18 21 12 19
003C5BC3 2019-02-23 01:01:49 21 12 18.9
003C5BC3 2019-02-23 00:29:21 21 12 18.7
003C5BC3 2019-02-22 23:56:51 21 12 18.7
003C5BC3 2019-02-22 23:24:22 21.1 12 18.7
003C5BC3 2019-02-22 22:51:53 21.1 12 18.6
003C5BC3 2019-02-22 22:19:25 21.1 12 18.8
003C5BC3 2019-02-22 21:46:55 21.1 12 19.1
003C5BC3 2019-02-22 21:14:27 21.2 12 19.3
003C5BC3 2019-02-22 20:41:57 21.2 12 19.2
003C5BC3 2019-02-22 20:09:28 21.2 12 18.9
003C5BC3 2019-02-22 19:36:59 21.2 12 18.6
003C5BC3 2019-02-22 19:03:50 21.3 12 19
003C5BC3 2019-02-22 18:52:54 21.3 12 19.1
003C5BC3 2019-02-22 18:41:57 21.2 12 19.1
003C5BC3 2019-02-22 18:31:02 21.3 12 18.7
003C5BC3 2019-02-22 18:20:06 21.3 12 18.3
003C5BC3 2019-02-22 18:09:11 21.3 12 18.4
003C5BC3 2019-02-22 17:58:15 21.3 12 18
003C5BC3 2019-02-22 17:47:19 21.3 12 17.7
003C5BC3 2019-02-22 17:36:23 21.3 12 17.6
003C5BC3 2019-02-22 17:25:28 21.3 12 17.8
003C5BC3 2019-02-22 17:14:31 21.3 12 17.6
003C5BC3 2019-02-22 17:03:36 21.3 12 17.4
003C5BC3 2019-02-22 16:52:41 21.3 12 17.6
003C5BC3 2019-02-22 16:41:45 21.2 12 17.7
003C5BC3 2019-02-22 16:30:49 21.2 12 17.7
003C5BC3 2019-02-22 16:19:53 21.2 12 17.8
003C5BC3 2019-02-22 16:08:57 21.2 12 17.8
003C5BC3 2019-02-22 15:58:02 21.2 12 17.5
003C5BC3 2019-02-22 15:47:06 21.1 12 17.2
003C5BC3 2019-02-22 15:36:10 21.1 12 16.9
003C5BC3 2019-02-22 15:25:15 21.1 12 17.1
003C5BC3 2019-02-22 15:14:21 21 13 17.1
003C5BC3 2019-02-22 15:03:25 21 13 17.1
003C5BC3 2019-02-22 14:52:29 21 13 17
003C5BC3 2019-02-22 14:41:32 21 13 16.8
003C5BC3 2019-02-22 14:30:36 21 13 17
003C5BC3 2019-02-22 14:19:40 20.9 13 17
003C5BC3 2019-02-22 14:08:44 20.9 13 19.5
003C5BC3 2019-02-22 13:57:49 20.9 13 19.6
003C5BC3 2019-02-22 13:46:53 20.9 13 19.6
003C5BC3 2019-02-22 13:36:00 20.9 13 19.6
003C5BC3 2019-02-22 13:25:04 20.9 13 19.8
003C5BC3 2019-02-22 13:14:07 20.9 13 19.7
003C5BC3 2019-02-22 13:03:11 20.8 13 19.9
003C5BC3 2019-02-22 12:52:15 20.8 13 19.9
003C5BC3 2019-02-22 12:41:19 20.8 13 19.8
003C5BC3 2019-02-22 12:30:24 20.8 13 19.8
003C5BC3 2019-02-22 12:19:28 20.8 13 19.8
003C5BC3 2019-02-22 12:08:35 20.8 13 20
003C5BC3 2019-02-22 11:57:40 20.7 13 20
003C5BC3 2019-02-22 11:46:42 20.7 13 19.9
003C5BC3 2019-02-22 11:35:46 20.7 13 20
003C5BC3 2019-02-22 11:24:51 20.7 13 20
003C5BC3 2019-02-22 11:13:55 20.7 13 20
003C5BC3 2019-02-22 11:03:00 20.6 13 19.9
003C5BC3 2019-02-22 10:52:04 20.6 13 20.1
003C5BC3 2019-02-22 10:41:09 20.6 13 20.2
003C5BC3 2019-02-22 10:30:14 20.6 13 20.2
003C5BC3 2019-02-22 10:19:18 20.6 13 20.2
003C5BC3 2019-02-22 10:08:26 20.6 13 20.3
003C5BC3 2019-02-22 09:56:52 20.6 13 18.3
003C5BC3 2019-02-22 09:45:59 20.6 13 18.4
003C5BC3 2019-02-22 09:35:03 20.6 13 18.4
003C5BC3 2019-02-22 09:24:07 20.6 13 18.6
003C5BC3 2019-02-22 09:13:10 20.6 13 18.8
003C5BC3 2019-02-22 09:02:13 20.6 13 18.7
003C5BC3 2019-02-22 08:51:17 20.6 13 18.8
003C5BC3 2019-02-22 08:40:22 20.6 13 18.6
003C5BC3 2019-02-22 08:29:26 20.6 13 18.8
003C5BC3 2019-02-22 08:18:31 20.6 13 18.6
003C5BC3 2019-02-22 08:07:36 20.6 13 18.9
003C5BC3 2019-02-22 07:56:40 20.6 13 19.3
003C5BC3 2019-02-22 07:45:45 20.6 13 19.1
003C5BC3 2019-02-22 07:34:49 20.6 13 19.4
003C5BC3 2019-02-22 07:23:53 20.6 13 19.7
003C5BC3 2019-02-22 07:12:58 20.6 13 19.9
003C5BC3 2019-02-22 07:02:02 20.6 13 20
003C5BC3 2019-02-22 06:51:06 20.6 13 20.1
003C5BC3 2019-02-22 06:40:11 20.6 13 20.2
003C5BC3 2019-02-22 06:29:18 20.6 13 20
003C5BC3 2019-02-22 06:18:20 20.6 13 19.9
003C5BC3 2019-02-22 06:07:24 20.6 13 20
003C5BC3 2019-02-22 05:56:29 20.7 13 19.9
003C5BC3 2019-02-22 05:45:33 20.6 13 19.7
003C5BC3 2019-02-22 05:34:38 20.6 13 19.7
003C5BC3 2019-02-22 05:23:42 20.7 13 19.8
003C5BC3 2019-02-22 05:12:45 20.7 13 19.6
003C5BC3 2019-02-22 05:01:49 20.7 13 19.6
003C5BC3 2019-02-22 04:50:54 20.7 13 19.4
003C5BC3 2019-02-22 04:39:58 20.7 13 19.4
003C5BC3 2019-02-22 04:29:02 20.7 13 19.5
003C5BC3 2019-02-22 04:18:06 20.7 13 19.5
003C5BC3 2019-02-22 04:07:12 20.7 13 19.6
003C5BC3 2019-02-22 03:56:15 20.7 13 19.3
003C5BC3 2019-02-22 03:45:20 20.7 13 19.5
003C5BC3 2019-02-22 03:34:24 20.7 13 19.3
003C5BC3 2019-02-22 03:23:27 20.7 13 18.9
003C5BC3 2019-02-22 03:12:32 20.7 13 18.9
003C5BC3 2019-02-22 03:01:36 20.7 14 18.6
003C5BC3 2019-02-22 02:50:39 20.7 13 20.2
003C5BC3 2019-02-22 02:39:44 20.7 14 20.2
003C5BC3 2019-02-22 02:28:48 20.7 13 19.9
003C5BC3 2019-02-22 02:17:51 20.7 13 19.8
003C5BC3 2019-02-22 02:06:56 20.8 13 19.7
003C5BC3 2019-02-22 01:56:01 20.8 13 19.7
003C5BC3 2019-02-22 01:45:05 20.7 14 19.7
003C5BC3 2019-02-22 01:34:09 20.8 14 19.6
003C5BC3 2019-02-22 01:23:13 20.8 14 19.6
003C5BC3 2019-02-22 01:12:17 20.8 14 19.6
003C5BC3 2019-02-22 01:01:22 20.8 13 19.8
003C5BC3 2019-02-22 00:49:52 20.8 14 19.8
003C5BC3 2019-02-22 00:38:58 20.8 13 19.8
003C5BC3 2019-02-22 00:28:00 20.8 14 19.8
003C5BC3 2019-02-22 00:17:05 20.8 14 19.7
003C5BC3 2019-02-22 00:06:11 20.8 14 19.5
003C5BC3 2019-02-21 23:55:13 20.8 14 19.5
003C5BC3 2019-02-21 23:44:16 20.8 13 19.5
003C5BC3 2019-02-21 23:33:22 20.9 14 19.7
003C5BC3 2019-02-21 23:22:26 20.9 14 19.5
003C5BC3 2019-02-21 23:11:30 20.9 14 19.6
003C5BC3 2019-02-21 23:00:34 20.9 14 19.7
003C5BC3 2019-02-21 22:49:40 20.9 14 19.6
003C5BC3 2019-02-21 22:38:45 20.9 14 19.6
003C5BC3 2019-02-21 22:27:49 20.9 14 17.3
003C5BC3 2019-02-21 22:16:53 20.9 14 17.3
003C5BC3 2019-02-21 22:05:57 20.9 14 17.7
003C5BC3 2019-02-21 21:55:01 20.9 14 17.5
003C5BC3 2019-02-21 21:44:06 21 14 17.6
003C5BC3 2019-02-21 21:33:11 21 14 17.5
003C5BC3 2019-02-21 21:22:15 21 14 17.5
003C5BC3 2019-02-21 21:11:20 21 14 17.7
003C5BC3 2019-02-21 21:00:24 21 14 17.8
003C5BC3 2019-02-21 20:49:29 21 14 17.9
003C5BC3 2019-02-21 20:38:33 21 14 17.5
003C5BC3 2019-02-21 20:27:37 21.1 14 17.2
003C5BC3 2019-02-21 20:16:40 21.1 14 17.3
003C5BC3 2019-02-21 20:05:45 21.1 14 19.7
003C5BC3 2019-02-21 19:54:49 21.1 14 21.2
003C5BC3 2019-02-21 19:43:53 21.1 14 21.2
003C5BC3 2019-02-21 19:32:57 21.1 14 22.3
003C5BC3 2019-02-21 19:22:02 21.1 14 23.1
003C5BC3 2019-02-21 19:11:05 21.1 14 23.9
003C5BC3 2019-02-21 19:00:10 21.2 14 23.8
003C5BC3 2019-02-21 18:49:15 21.2 14 23.8
003C5BC3 2019-02-21 18:38:19 21.2 14 23.8
003C5BC3 2019-02-21 18:27:23 21.2 14 23.7
003C5BC3 2019-02-21 18:16:27 21.2 14 23.7
003C5BC3 2019-02-21 18:05:32 21.2 14 23.7
003C5BC3 2019-02-21 17:54:35 21.2 14 23.6
003C5BC3 2019-02-21 17:43:41 21.2 14 23.6
003C5BC3 2019-02-21 17:32:46 21.2 14 23.5
003C5BC3 2019-02-21 17:21:48 21.2 14 23.5
003C5BC3 2019-02-21 17:10:52 21.1 14 23.5
003C5BC3 2019-02-21 16:59:55 21.1 14 23.6
003C5BC3 2019-02-21 16:49:02 21.1 14 23.6
003C5BC3 2019-02-21 16:38:04 21 14 23.6
003C5BC3 2019-02-21 16:27:08 21 14 23.6
003C5BC3 2019-02-21 16:16:13 20.9 14 23.6
003C5BC3 2019-02-21 16:05:17 20.9 14 23.6
003C5BC3 2019-02-21 15:54:21 20.9 14 23.6
003C5BC3 2019-02-21 15:42:52 20.8 14 23.6
003C5BC3 2019-02-21 14:05:25 20.7 15 22.8
003C5BC3 2019-02-21 13:32:55 20.7 15 21.8
003C5BC3 2019-02-21 13:00:30 20.7 16 21.8
003C5BC3 2019-02-21 12:27:56 20.7 16 20.5
003C5BC3 2019-02-21 11:55:25 20.7 17 18.7
003C5BC3 2019-02-21 11:22:56 20.7 17 15.5
003C5BC3 2019-02-21 10:18:00 20.7 17 15.5
003C5BC3 2019-02-21 09:45:26 20.7 17 15.8
003C5BC3 2019-02-21 09:12:57 20.7 18 15.9
003C5BC3 2019-02-21 08:40:28 20.7 18 16.1
003C5BC3 2019-02-21 08:07:59 20.7 18 16.6
003C5BC3 2019-02-21 07:35:33 20.7 18 16.6
003C5BC3 2019-02-21 07:03:00 20.7 19 16.6
003C5BC3 2019-02-21 06:30:31 20.7 19 16.5
003C5BC3 2019-02-21 05:58:01 20.8 19 16.4
003C5BC3 2019-02-21 05:25:31 20.8 19 16.5
003C5BC3 2019-02-21 04:53:03 20.8 19 16.1
003C5BC3 2019-02-21 04:20:32 20.8 19 16
003C5BC3 2019-02-21 03:48:01 20.8 19 15.6
003C5BC3 2019-02-21 03:15:31 20.8 20 15.3
003C5BC3 2019-02-21 02:43:00 20.8 20 15.3
003C5BC3 2019-02-21 02:10:34 20.8 20 18.7
003C5BC3 2019-02-21 01:38:03 20.8 20 18.7
003C5BC3 2019-02-21 01:05:34 20.8 20 20.4
003C5BC3 2019-02-21 00:33:04 20.8 20 21.8
003C5BC3 2019-02-21 00:00:35 20.9 20 21.7
003C5BC3 2019-02-20 23:28:04 20.9 21 21.7
003C5BC3 2019-02-20 22:55:35 20.9 21 21.7
003C5BC3 2019-02-20 22:23:05 20.9 21 22.7
003C5BC3 2019-02-20 21:50:36 20.9 21 22.7
003C5BC3 2019-02-20 21:18:08 20.9 21 22.7
003C5BC3 2019-02-20 20:45:39 20.9 21 22.8
003C5BC3 2019-02-20 20:13:09 20.9 21 22.8
003C5BC3 2019-02-20 19:40:40 20.9 21 22.9
003C5BC3 2019-02-20 19:08:10 20.9 21 23
003C5BC3 2019-02-20 18:35:42 20.9 22 22.9
003C5BC3 2019-02-20 18:03:11 20.9 22 22.9
003C5BC3 2019-02-20 17:30:41 21 22 23
003C5BC3 2019-02-20 16:58:13 21 23 23
003C5BC3 2019-02-20 16:25:45 20.9 23 23
003C5BC3 2019-02-20 15:53:12 20.9 23 23.1
003C5BC3 2019-02-20 15:20:41 20.9 24 23.1
003C5BC3 2019-02-20 14:15:41 20.9 24 23.1